Wetterdaten: Dienstag, 05.11.2013
Datum Zeit Temp. Aussen +5cm Feuchte Auss Luftdruck Regen Sonnenschein Regendauer UV Solar Windben
05.11.2013 00:00 6,4 C 5,0 C 94 % 996,2 hPa 0,0 l/m 0 min 2 min 0,0 UV-I 0 W/m 15,4 km/h (3 Bft)
05.11.2013 00:02 6,4 C 5,0 C 94 % 996,4 hPa 0,0 l/m 0 min 2 min 0,0 UV-I 0 W/m 15,4 km/h (3 Bft)
05.11.2013 00:06 6,4 C 5,0 C 94 % 996,3 hPa 0,0 l/m 0 min 2 min 0,0 UV-I 0 W/m 10,3 km/h (2 Bft)
05.11.2013 00:08 6,4 C 5,0 C 94 % 996,3 hPa 0,0 l/m 0 min 2 min 0,0 UV-I 0 W/m 10,3 km/h (2 Bft)
05.11.2013 00:10 6,4 C 5,0 C 94 % 996,3 hPa 0,0 l/m 0 min 2 min 0,0 UV-I 0 W/m 10,3 km/h (2 Bft)
05.11.2013 00:12 6,4 C 5,0 C 94 % 996,4 hPa 0,0 l/m 0 min 2 min 0,0 UV-I 0 W/m 0,0 km/h (0 Bft)
05.11.2013 00:14 6,4 C 5,0 C 94 % 996,4 hPa 0,0 l/m 0 min 2 min 0,0 UV-I 0 W/m 12,9 km/h (3 Bft)
05.11.2013 00:16 6,4 C 5,0 C 94 % 996,5 hPa 0,0 l/m 0 min 2 min 0,0 UV-I 0 W/m 20,6 km/h (4 Bft)
05.11.2013 00:18 6,4 C 5,0 C 94 % 996,4 hPa 0,0 l/m 0 min 2 min 0,0 UV-I 0 W/m 15,4 km/h (3 Bft)
05.11.2013 00:20 6,4 C 5,0 C 94 % 996,5 hPa 0,0 l/m 0 min 2 min 0,0 UV-I 0 W/m 18,0 km/h (3 Bft)
05.11.2013 00:22 6,5 C 5,0 C 94 % 996,5 hPa 0,0 l/m 0 min 2 min 0,0 UV-I 0 W/m 10,3 km/h (2 Bft)
05.11.2013 00:24 6,5 C 5,0 C 94 % 996,5 hPa 0,0 l/m 0 min 2 min 0,0 UV-I 0 W/m 0,0 km/h (0 Bft)
05.11.2013 00:26 6,5 C 5,0 C 94 % 996,6 hPa 0,0 l/m 0 min 0 min 0,0 UV-I 0 W/m 5,1 km/h (1 Bft)
05.11.2013 00:28 6,5 C 5,0 C 94 % 996,6 hPa 0,0 l/m 0 min 0 min 0,0 UV-I 0 W/m 10,3 km/h (2 Bft)
05.11.2013 00:30 6,5 C 5,0 C 94 % 996,6 hPa 0,2 l/m 0 min 2 min 0,0 UV-I 0 W/m 5,1 km/h (1 Bft)
05.11.2013 00:32 6,5 C 5,0 C 94 % 996,7 hPa 0,0 l/m 0 min 2 min 0,0 UV-I 0 W/m 0,0 km/h (0 Bft)
05.11.2013 00:34 6,5 C 5,0 C 94 % 996,6 hPa 0,0 l/m 0 min 2 min 0,0 UV-I 0 W/m 12,9 km/h (3 Bft)
05.11.2013 00:36 6,5 C 5,0 C 94 % 996,8 hPa 0,0 l/m 0 min 2 min 0,0 UV-I 0 W/m 15,4 km/h (3 Bft)
05.11.2013 00:38 6,5 C 5,0 C 94 % 996,7 hPa 0,0 l/m 0 min 2 min 0,0 UV-I 0 W/m 7,7 km/h (2 Bft)
05.11.2013 00:40 6,5 C 5,0 C 94 % 996,8 hPa 0,0 l/m 0 min 0 min 0,0 UV-I 0 W/m 5,1 km/h (1 Bft)
05.11.2013 00:42 6,6 C 5,0 C 94 % 996,7 hPa 0,0 l/m 0 min 2 min 0,0 UV-I 0 W/m 0,0 km/h (0 Bft)
05.11.2013 00:44 6,6 C 5,0 C 94 % 996,7 hPa 0,0 l/m 0 min 2 min 0,0 UV-I 0 W/m 10,3 km/h (2 Bft)
05.11.2013 00:46 6,6 C 5,0 C 94 % 996,8 hPa 0,0 l/m 0 min 0 min 0,0 UV-I 0 W/m 0,0 km/h (0 Bft)
05.11.2013 00:48 6,6 C 5,0 C 94 % 996,9 hPa 0,0 l/m 0 min 0 min 0,0 UV-I 0 W/m 2,6 km/h (1 Bft)
05.11.2013 00:50 6,6 C 5,0 C 94 % 996,9 hPa 0,0 l/m 0 min 2 min 0,0 UV-I 0 W/m 10,3 km/h (2 Bft)
05.11.2013 00:52 6,6 C 5,0 C 94 % 996,9 hPa 0,0 l/m 0 min 0 min 0,0 UV-I 0 W/m 12,9 km/h (3 Bft)
05.11.2013 00:54 6,6 C 5,0 C 94 % 996,9 hPa 0,0 l/m 0 min 0 min 0,0 UV-I 0 W/m 10,3 km/h (2 Bft)
05.11.2013 00:56 6,6 C 5,0 C 94 % 997,0 hPa 0,0 l/m 0 min 0 min 0,0 UV-I 0 W/m 7,7 km/h (2 Bft)
05.11.2013 00:58 6,6 C 5,0 C 94 % 996,9 hPa 0,0 l/m 0 min 0 min 0,0 UV-I 0 W/m 10,3 km/h (2 Bft)
05.11.2013 01:00 6,6 C 5,0 C 94 % 996,9 hPa 0,0 l/m 0 min 0 min 0,0 UV-I 0 W/m 15,4 km/h (3 Bft)
05.11.2013 01:02 6,6 C 5,0 C 94 % 996,9 hPa 0,0 l/m 0 min 0 min 0,0 UV-I 0 W/m 10,3 km/h (2 Bft)
05.11.2013 01:04 6,6 C 5,0 C 94 % 996,9 hPa 0,0 l/m 0 min 0 min 0,0 UV-I 0 W/m 18,0 km/h (3 Bft)
05.11.2013 01:06 6,6 C 5,0 C 94 % 996,9 hPa 0,0 l/m 0 min 0 min 0,0 UV-I 0 W/m 10,3 km/h (2 Bft)
05.11.2013 01:08 6,6 C 5,0 C 94 % 997,0 hPa 0,0 l/m 0 min 0 min 0,0 UV-I 0 W/m 18,0 km/h (3 Bft)
05.11.2013 01:10 6,6 C 5,0 C 94 % 997,0 hPa 0,0 l/m 0 min 0 min 0,0 UV-I 0 W/m 5,1 km/h (1 Bft)
05.11.2013 01:12 6,6 C 5,0 C 94 % 997,1 hPa 0,0 l/m 0 min 0 min 0,0 UV-I 0 W/m 18,0 km/h (3 Bft)
05.11.2013 01:14 6,6 C 5,0 C 94 % 997,0 hPa 0,0 l/m 0 min 0 min 0,0 UV-I 0 W/m 12,9 km/h (3 Bft)
05.11.2013 01:16 6,6 C 5,0 C 94 % 997,1 hPa 0,0 l/m 0 min 0 min 0,0 UV-I 0 W/m 10,3 km/h (2 Bft)
05.11.2013 01:18 6,6 C 5,0 C 94 % 997,1 hPa 0,0 l/m 0 min 0 min 0,0 UV-I 0 W/m 10,3 km/h (2 Bft)
05.11.2013 01:20 6,6 C 5,0 C 94 % 997,1 hPa 0,0 l/m 0 min 0 min 0,0 UV-I 0 W/m 5,1 km/h (1 Bft)
05.11.2013 01:22 6,6 C 5,0 C 94 % 997,2 hPa 0,0 l/m 0 min 0 min 0,0 UV-I 0 W/m 12,9 km/h (3 Bft)
05.11.2013 01:24 6,6 C 5,0 C 94 % 997,2 hPa 0,0 l/m 0 min 0 min 0,0 UV-I 0 W/m 12,9 km/h (3 Bft)
05.11.2013 01:26 6,6 C 5,0 C 94 % 997,2 hPa 0,0 l/m 0 min 0 min 0,0 UV-I 0 W/m 12,9 km/h (3 Bft)
05.11.2013 01:28 6,6 C 5,0 C 94 % 997,2 hPa 0,0 l/m 0 min 0 min 0,0 UV-I 0 W/m 7,7 km/h (2 Bft)
05.11.2013 01:30 6,6 C 5,0 C 94 % 997,3 hPa 0,0 l/m 0 min 0 min 0,0 UV-I 0 W/m 10,3 km/h (2 Bft)
05.11.2013 01:32 6,6 C 5,0 C 94 % 997,4 hPa 0,0 l/m 0 min 0 min 0,0 UV-I 0 W/m 5,1 km/h (1 Bft)
05.11.2013 01:34 6,6 C 5,0 C 94 % 997,3 hPa 0,0 l/m 0 min 0 min 0,0 UV-I 0 W/m 7,7 km/h (2 Bft)
05.11.2013 01:36 6,6 C 5,0 C 94 % 997,4 hPa 0,0 l/m 0 min 0 min 0,0 UV-I 0 W/m 10,3 km/h (2 Bft)
05.11.2013 01:38 6,6 C 5,0 C 94 % 997,4 hPa 0,0 l/m 0 min 0 min 0,0 UV-I 0 W/m 2,6 km/h (1 Bft)
05.11.2013 01:40 6,6 C 5,0 C 94 % 997,4 hPa 0,0 l/m 0 min 0 min 0,0 UV-I 0 W/m 5,1 km/h (1 Bft)
05.11.2013 01:42 6,6 C 5,0 C 94 % 997,4 hPa 0,0 l/m 0 min 0 min 0,0 UV-I 0 W/m 18,0 km/h (3 Bft)
05.11.2013 01:44 6,6 C 5,0 C 94 % 997,4 hPa 0,0 l/m 0 min 2 min 0,0 UV-I 0 W/m 12,9 km/h (3 Bft)
05.11.2013 01:46 6,6 C 5,0 C 94 % 997,4 hPa 0,0 l/m 0 min 2 min 0,0 UV-I 0 W/m 7,7 km/h (2 Bft)
05.11.2013 01:48 6,6 C 5,0 C 94 % 997,6 hPa 0,0 l/m 0 min 2 min 0,0 UV-I 0 W/m 2,6 km/h (1 Bft)
05.11.2013 01:50 6,6 C 5,0 C 94 % 997,5 hPa 0,0 l/m 0 min 2 min 0,0 UV-I 0 W/m 0,0 km/h (0 Bft)
05.11.2013 01:52 6,6 C 5,0 C 94 % 997,5 hPa 0,0 l/m 0 min 0 min 0,0 UV-I 0 W/m 10,3 km/h (2 Bft)
05.11.2013 01:54 6,6 C 5,0 C 94 % 997,5 hPa 0,0 l/m 0 min 0 min 0,0 UV-I 0 W/m 7,7 km/h (2 Bft)
05.11.2013 01:56 6,6 C 5,0 C 94 % 997,6 hPa 0,0 l/m 0 min 0 min 0,0 UV-I 0 W/m 10,3 km/h (2 Bft)
05.11.2013 01:58 6,5 C 5,0 C 94 % 997,5 hPa 0,0 l/m 0 min 0 min 0,0 UV-I 0 W/m 18,0 km/h (3 Bft)
05.11.2013 02:00 6,5 C 5,0 C 94 % 997,6 hPa 0,0 l/m 0 min 0 min 0,0 UV-I 0 W/m 10,3 km/h (2 Bft)
05.11.2013 02:02 6,5 C 5,0 C 94 % 997,5 hPa 0,0 l/m 0 min 0 min 0,0 UV-I 0 W/m 5,1 km/h (1 Bft)
05.11.2013 02:04 6,4 C 5,0 C 94 % 997,6 hPa 0,0 l/m 0 min 0 min 0,0 UV-I 0 W/m 7,7 km/h (2 Bft)
05.11.2013 02:06 6,4 C 5,0 C 94 % 997,6 hPa 0,0 l/m 0 min 0 min 0,0 UV-I 0 W/m 12,9 km/h (3 Bft)
05.11.2013 02:08 6,4 C 5,0 C 94 % 997,7 hPa 0,0 l/m 0 min 0 min 0,0 UV-I 0 W/m 2,6 km/h (1 Bft)
05.11.2013 02:10 6,4 C 5,0 C 94 % 997,7 hPa 0,0 l/m 0 min 0 min 0,0 UV-I 0 W/m 0,0 km/h (0 Bft)
05.11.2013 02:12 6,4 C 5,0 C 94 % 997,8 hPa 0,0 l/m 0 min 0 min 0,0 UV-I 0 W/m 5,1 km/h (1 Bft)
05.11.2013 02:14 6,4 C 5,0 C 94 % 998,0 hPa 0,0 l/m 0 min 2 min 0,0 UV-I 0 W/m 15,4 km/h (3 Bft)
05.11.2013 02:16 6,4 C 5,0 C 94 % 997,9 hPa 0,0 l/m 0 min 0 min 0,0 UV-I 0 W/m 7,7 km/h (2 Bft)
05.11.2013 02:18 6,4 C 5,0 C 94 % 997,9 hPa 0,0 l/m 0 min 0 min 0,0 UV-I 0 W/m 5,1 km/h (1 Bft)
05.11.2013 02:20 6,4 C 5,0 C 94 % 997,9 hPa 0,0 l/m 0 min 0 min 0,0 UV-I 0 W/m 20,6 km/h (4 Bft)
05.11.2013 02:22 6,5 C 5,0 C 94 % 997,9 hPa 0,0 l/m 0 min 0 min 0,0 UV-I 0 W/m 15,4 km/h (3 Bft)
05.11.2013 02:24 6,5 C 5,0 C 94 % 997,9 hPa 0,0 l/m 0 min 0 min 0,0 UV-I 0 W/m 15,4 km/h (3 Bft)
05.11.2013 02:26 6,5 C 5,0 C 94 % 997,9 hPa 0,0 l/m 0 min 0 min 0,0 UV-I 0 W/m 15,4 km/h (3 Bft)
05.11.2013 02:28 6,6 C 5,0 C 94 % 997,9 hPa 0,0 l/m 0 min 0 min 0,0 UV-I 0 W/m 23,2 km/h (4 Bft)
05.11.2013 02:30 6,6 C 5,0 C 94 % 997,9 hPa 0,0 l/m 0 min 0 min 0,0 UV-I 0 W/m 7,7 km/h (2 Bft)
05.11.2013 02:32 6,6 C 5,0 C 94 % 997,9 hPa 0,0 l/m 0 min 0 min 0,0 UV-I 0 W/m 15,4 km/h (3 Bft)
05.11.2013 02:34 6,6 C 5,0 C 94 % 998,1 hPa 0,0 l/m 0 min 0 min 0,0 UV-I 0 W/m 10,3 km/h (2 Bft)
05.11.2013 02:36 6,6 C 5,0 C 94 % 998,0 hPa 0,0 l/m 0 min 0 min 0,0 UV-I 0 W/m 5,1 km/h (1 Bft)
05.11.2013 02:38 6,6 C 5,0 C 94 % 998,0 hPa 0,0 l/m 0 min 0 min 0,0 UV-I 0 W/m 12,9 km/h (3 Bft)
05.11.2013 02:40 6,6 C 5,0 C 94 % 998,0 hPa 0,0 l/m 0 min 0 min 0,0 UV-I 0 W/m 7,7 km/h (2 Bft)
05.11.2013 02:42 6,6 C 5,0 C 94 % 998,1 hPa 0,0 l/m 0 min 0 min 0,0 UV-I 0 W/m 0,0 km/h (0 Bft)
05.11.2013 02:44 6,7 C 5,0 C 94 % 998,1 hPa 0,0 l/m 0 min 2 min 0,0 UV-I 0 W/m 7,7 km/h (2 Bft)
05.11.2013 02:46 6,6 C 5,0 C 94 % 998,1 hPa 0,0 l/m 0 min 2 min 0,0 UV-I 0 W/m 12,9 km/h (3 Bft)
05.11.2013 02:48 6,6 C 5,0 C 94 % 998,0 hPa 0,0 l/m 0 min 2 min 0,0 UV-I 0 W/m 12,9 km/h (3 Bft)
05.11.2013 02:50 6,6 C 5,0 C 94 % 998,0 hPa 0,0 l/m 0 min 2 min 0,0 UV-I 0 W/m 15,4 km/h (3 Bft)
05.11.2013 02:52 6,6 C 5,0 C 94 % 998,0 hPa 0,0 l/m 0 min 0 min 0,0 UV-I 0 W/m 12,9 km/h (3 Bft)
05.11.2013 02:54 6,6 C 5,0 C 94 % 998,0 hPa 0,0 l/m 0 min 0 min 0,0 UV-I 0 W/m 7,7 km/h (2 Bft)
05.11.2013 02:56 6,6 C 5,0 C 94 % 998,1 hPa 0,0 l/m 0 min 0 min 0,0 UV-I 0 W/m 12,9 km/h (3 Bft)
05.11.2013 02:58 6,6 C 5,0 C 94 % 998,0 hPa 0,0 l/m 0 min 0 min 0,0 UV-I 0 W/m 7,7 km/h (2 Bft)
05.11.2013 03:00 6,6 C 5,0 C 94 % 998,0 hPa 0,0 l/m 0 min 0 min 0,0 UV-I 0 W/m 10,3 km/h (2 Bft)
05.11.2013 03:02 6,6 C 5,0 C 94 % 997,9 hPa 0,0 l/m 0 min 0 min 0,0 UV-I 0 W/m 7,7 km/h (2 Bft)
05.11.2013 03:04 6,6 C 5,0 C 94 % 997,9 hPa 0,0 l/m 0 min 0 min 0,0 UV-I 0 W/m 5,1 km/h (1 Bft)
05.11.2013 03:06 6,6 C 5,0 C 94 % 998,0 hPa 0,0 l/m 0 min 0 min 0,0 UV-I 0 W/m 7,7 km/h (2 Bft)
05.11.2013 03:08 6,6 C 5,0 C 94 % 998,1 hPa 0,0 l/m 0 min 0 min 0,0 UV-I 0 W/m 0,0 km/h (0 Bft)
05.11.2013 03:10 6,6 C 5,0 C 94 % 998,0 hPa 0,0 l/m 0 min 2 min 0,0 UV-I 0 W/m 20,6 km/h (4 Bft)
05.11.2013 03:12 6,6 C 5,0 C 94 % 997,9 hPa 0,0 l/m 0 min 2 min 0,0 UV-I 0 W/m 7,7 km/h (2 Bft)
05.11.2013 03:14 6,6 C 5,0 C 94 % 997,9 hPa 0,0 l/m 0 min 2 min 0,0 UV-I 0 W/m 2,6 km/h (1 Bft)
05.11.2013 03:16 6,5 C 5,0 C 94 % 998,0 hPa 0,0 l/m 0 min 2 min 0,0 UV-I 0 W/m 5,1 km/h (1 Bft)
05.11.2013 03:18 6,5 C 5,0 C 94 % 997,9 hPa 0,0 l/m 0 min 2 min 0,0 UV-I 0 W/m 2,6 km/h (1 Bft)
05.11.2013 03:20 6,5 C 5,0 C 94 % 998,0 hPa 0,0 l/m 0 min 0 min 0,0 UV-I 0 W/m 7,7 km/h (2 Bft)
05.11.2013 03:22 6,4 C 5,0 C 94 % 997,9 hPa 0,0 l/m 0 min 0 min 0,0 UV-I 0 W/m 0,0 km/h (0 Bft)
05.11.2013 03:24 6,4 C 5,0 C 94 % 998,0 hPa 0,0 l/m 0 min 2 min 0,0 UV-I 0 W/m 12,9 km/h (3 Bft)
05.11.2013 03:26 6,4 C 5,0 C 94 % 998,0 hPa 0,0 l/m 0 min 0 min 0,0 UV-I 0 W/m 2,6 km/h (1 Bft)
05.11.2013 03:28 6,4 C 5,0 C 94 % 998,1 hPa 0,0 l/m 0 min 0 min 0,0 UV-I 0 W/m 2,6 km/h (1 Bft)
05.11.2013 03:30 6,4 C 5,0 C 94 % 998,0 hPa 0,0 l/m 0 min 0 min 0,0 UV-I 0 W/m 2,6 km/h (1 Bft)
05.11.2013 03:32 6,4 C 5,0 C 94 % 998,1 hPa 0,0 l/m 0 min 0 min 0,0 UV-I 0 W/m 5,1 km/h (1 Bft)
05.11.2013 03:34 6,4 C 5,0 C 94 % 998,2 hPa 0,0 l/m 0 min 0 min 0,0 UV-I 0 W/m 2,6 km/h (1 Bft)
05.11.2013 03:36 6,3 C 5,0 C 94 % 998,2 hPa 0,0 l/m 0 min 0 min 0,0 UV-I 0 W/m 7,7 km/h (2 Bft)
05.11.2013 03:38 6,3 C 5,0 C 95 % 998,1 hPa 0,0 l/m 0 min 0 min 0,0 UV-I 0 W/m 0,0 km/h (0 Bft)
05.11.2013 03:40 6,3 C 5,0 C 94 % 998,1 hPa 0,0 l/m 0 min 0 min 0,0 UV-I 0 W/m 0,0 km/h (0 Bft)
05.11.2013 03:42 6,3 C 5,0 C 94 % 998,1 hPa 0,0 l/m 0 min 0 min 0,0 UV-I 0 W/m 7,7 km/h (2 Bft)
05.11.2013 03:44 6,3 C 5,0 C 94 % 998,1 hPa 0,0 l/m 0 min 0 min 0,0 UV-I 0 W/m 7,7 km/h (2 Bft)
05.11.2013 03:46 6,3 C 5,0 C 95 % 998,1 hPa 0,0 l/m 0 min 0 min 0,0 UV-I 0 W/m 0,0 km/h (0 Bft)
05.11.2013 03:48 6,3 C 5,0 C 95 % 998,1 hPa 0,0 l/m 0 min 0 min 0,0 UV-I 0 W/m 5,1 km/h (1 Bft)
05.11.2013 03:50 6,3 C 5,0 C 95 % 998,2 hPa 0,0 l/m 0 min 0 min 0,0 UV-I 0 W/m 5,1 km/h (1 Bft)
05.11.2013 03:52 6,3 C 5,0 C 95 % 998,2 hPa 0,0 l/m 0 min 0 min 0,0 UV-I 0 W/m 10,3 km/h (2 Bft)
05.11.2013 03:54 6,3 C 5,0 C 95 % 998,2 hPa 0,0 l/m 0 min 0 min 0,0 UV-I 0 W/m 10,3 km/h (2 Bft)
05.11.2013 03:56 6,3 C 5,0 C 95 % 998,2 hPa 0,0 l/m 0 min 0 min 0,0 UV-I 0 W/m 2,6 km/h (1 Bft)
05.11.2013 03:58 6,3 C 5,0 C 95 % 998,3 hPa 0,0 l/m 0 min 0 min 0,0 UV-I 0 W/m 0,0 km/h (0 Bft)
05.11.2013 04:00 6,3 C 5,0 C 95 % 998,3 hPa 0,0 l/m 0 min 0 min 0,0 UV-I 0 W/m 2,6 km/h (1 Bft)
05.11.2013 04:02 6,3 C 5,0 C 95 % 998,3 hPa 0,0 l/m 0 min 0 min 0,0 UV-I 0 W/m 10,3 km/h (2 Bft)
05.11.2013 04:04 6,2 C 5,0 C 95 % 998,3 hPa 0,0 l/m 0 min 0 min 0,0 UV-I 0 W/m 10,3 km/h (2 Bft)
05.11.2013 04:06 6,2 C 5,0 C 95 % 998,3 hPa 0,0 l/m 0 min 0 min 0,0 UV-I 0 W/m 5,1 km/h (1 Bft)
05.11.2013 04:08 6,2 C 4,4 C 95 % 998,3 hPa 0,0 l/m 0 min 0 min 0,0 UV-I 0 W/m 2,6 km/h (1 Bft)
05.11.2013 04:10 6,1 C 4,4 C 95 % 998,4 hPa 0,0 l/m 0 min 0 min 0,0 UV-I 0 W/m 7,7 km/h (2 Bft)
05.11.2013 04:12 6,1 C 4,4 C 95 % 998,4 hPa 0,0 l/m 0 min 0 min 0,0 UV-I 0 W/m 2,6 km/h (1 Bft)
05.11.2013 04:14 6,0 C 4,4 C 95 % 998,3 hPa 0,0 l/m 0 min 0 min 0,0 UV-I 0 W/m 12,9 km/h (3 Bft)
05.11.2013 04:16 6,0 C 4,4 C 95 % 998,5 hPa 0,0 l/m 0 min 0 min 0,0 UV-I 0 W/m 2,6 km/h (1 Bft)
05.11.2013 04:18 6,0 C 4,4 C 95 % 998,5 hPa 0,0 l/m 0 min 0 min 0,0 UV-I 0 W/m 2,6 km/h (1 Bft)
05.11.2013 04:20 6,0 C 4,4 C 95 % 998,5 hPa 0,0 l/m 0 min 0 min 0,0 UV-I 0 W/m 12,9 km/h (3 Bft)
05.11.2013 04:22 6,0 C 4,4 C 95 % 998,4 hPa 0,0 l/m 0 min 0 min 0,0 UV-I 0 W/m 15,4 km/h (3 Bft)
05.11.2013 04:24 5,9 C 4,4 C 94 % 998,5 hPa 0,0 l/m 0 min 0 min 0,0 UV-I 0 W/m 7,7 km/h (2 Bft)
05.11.2013 04:26 5,9 C 4,4 C 94 % 998,5 hPa 0,0 l/m 0 min 0 min 0,0 UV-I 0 W/m 2,6 km/h (1 Bft)
05.11.2013 04:28 5,9 C 4,4 C 94 % 998,5 hPa 0,0 l/m 0 min 0 min 0,0 UV-I 0 W/m 15,4 km/h (3 Bft)
05.11.2013 04:30 5,9 C 4,4 C 94 % 998,4 hPa 0,0 l/m 0 min 0 min 0,0 UV-I 0 W/m 0,0 km/h (0 Bft)
05.11.2013 04:32 5,9 C 4,4 C 94 % 998,4 hPa 0,0 l/m 0 min 0 min 0,0 UV-I 0 W/m 5,1 km/h (1 Bft)
05.11.2013 04:34 5,8 C 4,4 C 94 % 998,4 hPa 0,0 l/m 0 min 0 min 0,0 UV-I 0 W/m 2,6 km/h (1 Bft)
05.11.2013 04:36 5,8 C 4,4 C 94 % 998,5 hPa 0,0 l/m 0 min 0 min 0,0 UV-I 0 W/m 5,1 km/h (1 Bft)
05.11.2013 04:38 5,8 C 4,4 C 94 % 998,5 hPa 0,0 l/m 0 min 0 min 0,0 UV-I 0 W/m 0,0 km/h (0 Bft)
05.11.2013 04:40 5,7 C 4,4 C 94 % 998,5 hPa 0,0 l/m 0 min 0 min 0,0 UV-I 0 W/m 7,7 km/h (2 Bft)
05.11.2013 04:42 5,7 C 4,4 C 94 % 998,5 hPa 0,0 l/m 0 min 0 min 0,0 UV-I 0 W/m 5,1 km/h (1 Bft)
05.11.2013 04:44 5,7 C 4,4 C 94 % 998,6 hPa 0,0 l/m 0 min 0 min 0,0 UV-I 0 W/m 5,1 km/h (1 Bft)
05.11.2013 04:46 5,7 C 3,9 C 94 % 998,5 hPa 0,0 l/m 0 min 0 min 0,0 UV-I 0 W/m 0,0 km/h (0 Bft)
05.11.2013 04:48 5,6 C 4,4 C 94 % 998,5 hPa 0,0 l/m 0 min 0 min 0,0 UV-I 0 W/m 7,7 km/h (2 Bft)
05.11.2013 04:50 5,6 C 3,9 C 94 % 998,5 hPa 0,0 l/m 0 min 0 min 0,0 UV-I 0 W/m 5,1 km/h (1 Bft)
05.11.2013 04:52 5,6 C 3,9 C 94 % 998,5 hPa 0,0 l/m 0 min 0 min 0,0 UV-I 0 W/m 10,3 km/h (2 Bft)
05.11.2013 04:54 5,6 C 3,9 C 94 % 998,5 hPa 0,0 l/m 0 min 0 min 0,0 UV-I 0 W/m 7,7 km/h (2 Bft)
05.11.2013 04:56 5,5 C 3,9 C 94 % 998,5 hPa 0,0 l/m 0 min 0 min 0,0 UV-I 0 W/m 0,0 km/h (0 Bft)
05.11.2013 04:58 5,5 C 3,9 C 94 % 998,6 hPa 0,0 l/m 0 min 0 min 0,0 UV-I 0 W/m 5,1 km/h (1 Bft)
05.11.2013 05:00 5,5 C 4,4 C 94 % 998,6 hPa 0,0 l/m 0 min 0 min 0,0 UV-I 0 W/m 0,0 km/h (0 Bft)
05.11.2013 05:02 5,5 C 4,4 C 94 % 998,5 hPa 0,0 l/m 0 min 0 min 0,0 UV-I 0 W/m 10,3 km/h (2 Bft)
05.11.2013 05:04 5,5 C 4,4 C 94 % 998,5 hPa 0,0 l/m 0 min 0 min 0,0 UV-I 0 W/m 5,1 km/h (1 Bft)
05.11.2013 05:06 5,5 C 4,4 C 94 % 998,5 hPa 0,0 l/m 0 min 0 min 0,0 UV-I 0 W/m 7,7 km/h (2 Bft)
05.11.2013 05:08 5,6 C 4,4 C 95 % 998,5 hPa 0,0 l/m 0 min 0 min 0,0 UV-I 0 W/m 10,3 km/h (2 Bft)
05.11.2013 05:10 5,6 C 4,4 C 95 % 998,4 hPa 0,0 l/m 0 min 0 min 0,0 UV-I 0 W/m 7,7 km/h (2 Bft)
05.11.2013 05:12 5,6 C 4,4 C 95 % 998,5 hPa 0,0 l/m 0 min 0 min 0,0 UV-I 0 W/m 12,9 km/h (3 Bft)
05.11.2013 05:14 5,6 C 4,4 C 95 % 998,5 hPa 0,0 l/m 0 min 0 min 0,0 UV-I 0 W/m 5,1 km/h (1 Bft)
05.11.2013 05:16 5,7 C 4,4 C 95 % 998,6 hPa 0,0 l/m 0 min 0 min 0,0 UV-I 0 W/m 10,3 km/h (2 Bft)
05.11.2013 05:18 5,7 C 4,4 C 95 % 998,6 hPa 0,0 l/m 0 min 0 min 0,0 UV-I 0 W/m 0,0 km/h (0 Bft)
05.11.2013 05:20 5,7 C 4,4 C 95 % 998,6 hPa 0,0 l/m 0 min 0 min 0,0 UV-I 0 W/m 12,9 km/h (3 Bft)
05.11.2013 05:22 5,8 C 4,4 C 95 % 998,6 hPa 0,0 l/m 0 min 0 min 0,0 UV-I 0 W/m 7,7 km/h (2 Bft)
05.11.2013 05:24 5,8 C 4,4 C 94 % 998,6 hPa 0,0 l/m 0 min 0 min 0,0 UV-I 0 W/m 5,1 km/h (1 Bft)
05.11.2013 05:26 5,8 C 4,4 C 94 % 998,5 hPa 0,0 l/m 0 min 0 min 0,0 UV-I 0 W/m 12,9 km/h (3 Bft)
05.11.2013 05:28 5,8 C 4,4 C 94 % 998,6 hPa 0,0 l/m 0 min 0 min 0,0 UV-I 0 W/m 10,3 km/h (2 Bft)
05.11.2013 05:30 5,8 C 4,4 C 94 % 998,6 hPa 0,0 l/m 0 min 0 min 0,0 UV-I 0 W/m 10,3 km/h (2 Bft)
05.11.2013 05:32 5,8 C 4,4 C 94 % 998,6 hPa 0,0 l/m 0 min 0 min 0,0 UV-I 0 W/m 10,3 km/h (2 Bft)
05.11.2013 05:34 5,8 C 4,4 C 94 % 998,6 hPa 0,0 l/m 0 min 0 min 0,0 UV-I 0 W/m 2,6 km/h (1 Bft)
05.11.2013 05:36 5,8 C 4,4 C 94 % 998,6 hPa 0,0 l/m 0 min 0 min 0,0 UV-I 0 W/m 2,6 km/h (1 Bft)
05.11.2013 05:38 5,8 C 4,4 C 94 % 998,6 hPa 0,0 l/m 0 min 0 min 0,0 UV-I 0 W/m 2,6 km/h (1 Bft)
05.11.2013 05:40 5,7 C 4,4 C 94 % 998,6 hPa 0,0 l/m 0 min 0 min 0,0 UV-I 0 W/m 0,0 km/h (0 Bft)
05.11.2013 05:42 5,7 C 4,4 C 94 % 998,7 hPa 0,0 l/m 0 min 0 min 0,0 UV-I 0 W/m 10,3 km/h (2 Bft)
05.11.2013 05:44 5,7 C 4,4 C 94 % 998,7 hPa 0,0 l/m 0 min 0 min 0,0 UV-I 0 W/m 7,7 km/h (2 Bft)
05.11.2013 05:46 5,7 C 4,4 C 94 % 998,7 hPa 0,0 l/m 0 min 0 min 0,0 UV-I 0 W/m 0,0 km/h (0 Bft)
05.11.2013 05:48 5,7 C 4,4 C 94 % 998,6 hPa 0,0 l/m 0 min 0 min 0,0 UV-I 0 W/m 0,0 km/h (0 Bft)
05.11.2013 05:50 5,6 C 4,4 C 93 % 998,6 hPa 0,0 l/m 0 min 0 min 0,0 UV-I 0 W/m 7,7 km/h (2 Bft)
05.11.2013 05:52 5,6 C 3,9 C 93 % 998,6 hPa 0,0 l/m 0 min 0 min 0,0 UV-I 0 W/m 0,0 km/h (0 Bft)
05.11.2013 05:54 5,5 C 3,9 C 93 % 998,6 hPa 0,0 l/m 0 min 0 min 0,0 UV-I 0 W/m 2,6 km/h (1 Bft)
05.11.2013 05:56 5,5 C 3,9 C 93 % 998,6 hPa 0,0 l/m 0 min 0 min 0,0 UV-I 0 W/m 0,0 km/h (0 Bft)
05.11.2013 05:58 5,4 C 3,9 C 93 % 998,6 hPa 0,0 l/m 0 min 0 min 0,0 UV-I 0 W/m 0,0 km/h (0 Bft)
05.11.2013 06:00 5,4 C 3,9 C 93 % 998,6 hPa 0,0 l/m 0 min 0 min 0,0 UV-I 0 W/m 12,9 km/h (3 Bft)
05.11.2013 06:02 5,4 C 3,9 C 93 % 998,7 hPa 0,0 l/m 0 min 0 min 0,0 UV-I 0 W/m 7,7 km/h (2 Bft)
05.11.2013 06:06 5,3 C 3,9 C 93 % 998,8 hPa 0,0 l/m 0 min 0 min 0,0 UV-I 0 W/m 7,7 km/h (2 Bft)
05.11.2013 06:08 5,3 C 3,9 C 93 % 998,7 hPa 0,0 l/m 0 min 0 min 0,0 UV-I 0 W/m 0,0 km/h (0 Bft)
05.11.2013 06:10 5,2 C 3,9 C 93 % 998,7 hPa 0,0 l/m 0 min 0 min 0,0 UV-I 0 W/m 2,6 km/h (1 Bft)
05.11.2013 06:12 5,2 C 3,9 C 93 % 998,7 hPa 0,0 l/m 0 min 0 min 0,0 UV-I 0 W/m 0,0 km/h (0 Bft)
05.11.2013 06:14 5,2 C 3,9 C 93 % 998,7 hPa 0,0 l/m 0 min 0 min 0,0 UV-I 0 W/m 0,0 km/h (0 Bft)
05.11.2013 06:16 5,2 C 3,9 C 93 % 998,8 hPa 0,0 l/m 0 min 0 min 0,0 UV-I 0 W/m 5,1 km/h (1 Bft)
05.11.2013 06:18 5,1 C 3,9 C 93 % 998,7 hPa 0,0 l/m 0 min 0 min 0,0 UV-I 0 W/m 2,6 km/h (1 Bft)
05.11.2013 06:20 5,1 C 3,9 C 93 % 998,7 hPa 0,0 l/m 0 min 0 min 0,0 UV-I 0 W/m 7,7 km/h (2 Bft)
05.11.2013 06:22 5,1 C 3,9 C 94 % 998,8 hPa 0,0 l/m 0 min 0 min 0,0 UV-I 0 W/m 0,0 km/h (0 Bft)
05.11.2013 06:24 5,0 C 3,9 C 93 % 998,9 hPa 0,0 l/m 0 min 0 min 0,0 UV-I 0 W/m 2,6 km/h (1 Bft)
05.11.2013 06:26 4,9 C 3,9 C 93 % 998,9 hPa 0,0 l/m 0 min 0 min 0,0 UV-I 0 W/m 0,0 km/h (0 Bft)
05.11.2013 06:28 4,9 C 3,9 C 93 % 998,9 hPa 0,0 l/m 0 min 0 min 0,0 UV-I 0 W/m 0,0 km/h (0 Bft)
05.11.2013 06:30 4,9 C 3,9 C 94 % 999,0 hPa 0,0 l/m 0 min 0 min 0,0 UV-I 0 W/m 0,0 km/h (0 Bft)
05.11.2013 06:32 4,9 C 3,9 C 94 % 999,0 hPa 0,0 l/m 0 min 0 min 0,0 UV-I 0 W/m 7,7 km/h (2 Bft)
05.11.2013 06:34 4,9 C 3,3 C 94 % 998,9 hPa 0,0 l/m 0 min 0 min 0,0 UV-I 0 W/m 10,3 km/h (2 Bft)
05.11.2013 06:36 4,8 C 3,3 C 94 % 998,9 hPa 0,0 l/m 0 min 0 min 0,0 UV-I 0 W/m 7,7 km/h (2 Bft)
05.11.2013 06:38 4,8 C 3,3 C 94 % 998,9 hPa 0,0 l/m 0 min 0 min 0,0 UV-I 0 W/m 0,0 km/h (0 Bft)
05.11.2013 06:40 4,8 C 3,3 C 94 % 999,0 hPa 0,0 l/m 0 min 0 min 0,0 UV-I 0 W/m 5,1 km/h (1 Bft)
05.11.2013 06:42 4,7 C 3,3 C 94 % 999,0 hPa 0,0 l/m 0 min 0 min 0,0 UV-I 0 W/m 0,0 km/h (0 Bft)
05.11.2013 06:44 4,7 C 3,3 C 94 % 999,0 hPa 0,0 l/m 0 min 0 min 0,0 UV-I 0 W/m 7,7 km/h (2 Bft)
05.11.2013 06:46 4,7 C 3,3 C 94 % 999,0 hPa 0,0 l/m 0 min 0 min 0,0 UV-I 0 W/m 5,1 km/h (1 Bft)
05.11.2013 06:48 4,7 C 3,3 C 94 % 998,9 hPa 0,0 l/m 0 min 0 min 0,0 UV-I 0 W/m 10,3 km/h (2 Bft)
05.11.2013 06:50 4,7 C 3,3 C 94 % 999,0 hPa 0,0 l/m 0 min 0 min 0,0 UV-I 0 W/m 7,7 km/h (2 Bft)
05.11.2013 06:52 4,6 C 3,3 C 94 % 999,0 hPa 0,0 l/m 0 min 0 min 0,0 UV-I 0 W/m 7,7 km/h (2 Bft)
05.11.2013 06:54 4,6 C 3,3 C 94 % 999,0 hPa 0,0 l/m 0 min 0 min 0,0 UV-I 0 W/m 0,0 km/h (0 Bft)
05.11.2013 06:56 4,6 C 3,3 C 94 % 998,9 hPa 0,0 l/m 0 min 0 min 0,0 UV-I 0 W/m 0,0 km/h (0 Bft)
05.11.2013 06:58 4,6 C 3,3 C 94 % 998,9 hPa 0,0 l/m 0 min 0 min 0,0 UV-I 0 W/m 7,7 km/h (2 Bft)
05.11.2013 07:00 4,5 C 3,3 C 94 % 998,9 hPa 0,0 l/m 0 min 0 min 0,0 UV-I 0 W/m 2,6 km/h (1 Bft)
05.11.2013 07:02 4,4 C 3,3 C 94 % 998,9 hPa 0,0 l/m 0 min 0 min 0,0 UV-I 0 W/m 0,0 km/h (0 Bft)
05.11.2013 07:04 4,4 C 3,3 C 94 % 998,9 hPa 0,0 l/m 0 min 0 min 0,0 UV-I 0 W/m 0,0 km/h (0 Bft)
05.11.2013 07:06 4,4 C 3,3 C 94 % 998,8 hPa 0,0 l/m 0 min 0 min 0,0 UV-I 0 W/m 0,0 km/h (0 Bft)
05.11.2013 07:08 4,4 C 3,3 C 94 % 998,9 hPa 0,0 l/m 0 min 0 min 0,0 UV-I 0 W/m 2,6 km/h (1 Bft)
05.11.2013 07:10 4,3 C 3,3 C 94 % 998,8 hPa 0,0 l/m 0 min 0 min 0,0 UV-I 0 W/m 0,0 km/h (0 Bft)
05.11.2013 07:12 4,3 C 3,3 C 94 % 998,9 hPa 0,0 l/m 0 min 0 min 0,0 UV-I 0 W/m 7,7 km/h (2 Bft)
05.11.2013 07:14 4,3 C 3,3 C 94 % 998,9 hPa 0,0 l/m 0 min 0 min 0,0 UV-I 0 W/m 2,6 km/h (1 Bft)
05.11.2013 07:16 4,3 C 3,3 C 94 % 998,9 hPa 0,0 l/m 0 min 0 min 0,0 UV-I 0 W/m 0,0 km/h (0 Bft)
05.11.2013 07:18 4,3 C 3,3 C 94 % 998,8 hPa 0,0 l/m 0 min 0 min 0,0 UV-I 0 W/m 2,6 km/h (1 Bft)
05.11.2013 07:20 4,3 C 3,3 C 94 % 998,8 hPa 0,0 l/m 0 min 0 min 0,0 UV-I 0 W/m 0,0 km/h (0 Bft)
05.11.2013 07:22 4,2 C 3,3 C 94 % 998,9 hPa 0,0 l/m 0 min 0 min 0,0 UV-I 0 W/m 2,6 km/h (1 Bft)
05.11.2013 07:24 4,2 C 2,8 C 94 % 998,9 hPa 0,0 l/m 0 min 0 min 0,0 UV-I 0 W/m 7,7 km/h (2 Bft)
05.11.2013 07:26 4,2 C 3,3 C 94 % 998,9 hPa 0,0 l/m 0 min 0 min 0,0 UV-I 0 W/m 5,1 km/h (1 Bft)
05.11.2013 07:28 4,2 C 3,3 C 95 % 998,9 hPa 0,0 l/m 0 min 0 min 0,0 UV-I 0 W/m 2,6 km/h (1 Bft)
05.11.2013 07:30 4,2 C 3,3 C 95 % 998,8 hPa 0,0 l/m 0 min 0 min 0,0 UV-I 0 W/m 10,3 km/h (2 Bft)
05.11.2013 07:32 4,2 C 3,3 C 95 % 998,8 hPa 0,0 l/m 0 min 0 min 0,0 UV-I 5 W/m 5,1 km/h (1 Bft)
05.11.2013 07:34 4,2 C 2,8 C 95 % 998,8 hPa 0,0 l/m 0 min 0 min 0,0 UV-I 5 W/m 0,0 km/h (0 Bft)
05.11.2013 07:36 4,2 C 2,8 C 95 % 998,8 hPa 0,0 l/m 0 min 0 min 0,0 UV-I 5 W/m 0,0 km/h (0 Bft)
05.11.2013 07:38 4,2 C 2,8 C 95 % 998,8 hPa 0,0 l/m 0 min 0 min 0,0 UV-I 7 W/m 10,3 km/h (2 Bft)
05.11.2013 07:40 4,2 C 2,8 C 94 % 998,9 hPa 0,0 l/m 0 min 0 min 0,0 UV-I 7 W/m 7,7 km/h (2 Bft)
05.11.2013 07:42 4,2 C 2,8 C 94 % 998,8 hPa 0,0 l/m 0 min 0 min 0,0 UV-I 9 W/m 15,4 km/h (3 Bft)
05.11.2013 07:44 4,2 C 3,3 C 95 % 998,9 hPa 0,0 l/m 0 min 0 min 0,0 UV-I 11 W/m 0,0 km/h (0 Bft)
05.11.2013 07:46 4,2 C 3,3 C 95 % 998,8 hPa 0,0 l/m 0 min 0 min 0,0 UV-I 14 W/m 0,0 km/h (0 Bft)
05.11.2013 07:48 4,2 C 3,3 C 95 % 998,8 hPa 0,0 l/m 0 min 0 min 0,0 UV-I 16 W/m 2,6 km/h (1 Bft)
05.11.2013 07:50 4,2 C 3,3 C 95 % 998,8 hPa 0,0 l/m 0 min 0 min 0,0 UV-I 18 W/m 0,0 km/h (0 Bft)
05.11.2013 07:52 4,2 C 3,3 C 95 % 998,8 hPa 0,0 l/m 0 min 0 min 0,0 UV-I 21 W/m 5,1 km/h (1 Bft)
05.11.2013 07:54 4,2 C 3,3 C 95 % 998,9 hPa 0,0 l/m 0 min 0 min 0,0 UV-I 25 W/m 2,6 km/h (1 Bft)
05.11.2013 07:56 4,3 C 3,3 C 95 % 998,9 hPa 0,0 l/m 0 min 0 min 0,0 UV-I 26 W/m 18,0 km/h (3 Bft)
05.11.2013 07:58 4,3 C 3,3 C 95 % 998,8 hPa 0,0 l/m 2 min 0 min 0,0 UV-I 30 W/m 10,3 km/h (2 Bft)
05.11.2013 08:00 4,3 C 3,3 C 95 % 998,9 hPa 0,0 l/m 2 min 0 min 0,0 UV-I 32 W/m 2,6 km/h (1 Bft)
05.11.2013 08:02 4,4 C 3,3 C 95 % 998,9 hPa 0,0 l/m 2 min 0 min 0,0 UV-I 33 W/m 12,9 km/h (3 Bft)
05.11.2013 08:04 4,4 C 3,3 C 95 % 998,9 hPa 0,0 l/m 2 min 0 min 0,0 UV-I 35 W/m 7,7 km/h (2 Bft)
05.11.2013 08:06 4,5 C 3,3 C 95 % 998,9 hPa 0,0 l/m 2 min 0 min 0,0 UV-I 35 W/m 10,3 km/h (2 Bft)
05.11.2013 08:08 4,6 C 3,9 C 95 % 998,9 hPa 0,0 l/m 0 min 0 min 0,0 UV-I 35 W/m 15,4 km/h (3 Bft)
05.11.2013 08:10 4,6 C 3,9 C 95 % 998,8 hPa 0,0 l/m 0 min 0 min 0,0 UV-I 37 W/m 0,0 km/h (0 Bft)
05.11.2013 08:12 4,6 C 3,3 C 95 % 998,9 hPa 0,0 l/m 0 min 0 min 0,0 UV-I 37 W/m 5,1 km/h (1 Bft)
05.11.2013 08:14 4,7 C 3,9 C 95 % 998,8 hPa 0,0 l/m 0 min 0 min 0,0 UV-I 37 W/m 2,6 km/h (1 Bft)
05.11.2013 08:16 4,7 C 3,9 C 94 % 998,8 hPa 0,0 l/m 0 min 0 min 0,0 UV-I 33 W/m 7,7 km/h (2 Bft)
05.11.2013 08:18 4,8 C 3,9 C 94 % 998,8 hPa 0,0 l/m 0 min 0 min 0,0 UV-I 32 W/m 2,6 km/h (1 Bft)
05.11.2013 08:20 4,8 C 3,9 C 94 % 998,8 hPa 0,0 l/m 0 min 0 min 0,0 UV-I 32 W/m 5,1 km/h (1 Bft)
05.11.2013 08:22 4,8 C 3,9 C 94 % 998,8 hPa 0,0 l/m 0 min 0 min 0,0 UV-I 30 W/m 5,1 km/h (1 Bft)
05.11.2013 08:24 4,8 C 3,9 C 94 % 998,7 hPa 0,0 l/m 0 min 0 min 0,0 UV-I 32 W/m 5,1 km/h (1 Bft)
05.11.2013 08:26 4,9 C 3,9 C 94 % 998,8 hPa 0,0 l/m 0 min 0 min 0,0 UV-I 33 W/m 2,6 km/h (1 Bft)
05.11.2013 08:28 4,9 C 3,9 C 94 % 998,8 hPa 0,0 l/m 0 min 0 min 0,0 UV-I 37 W/m 2,6 km/h (1 Bft)
05.11.2013 08:30 4,9 C 3,9 C 94 % 998,7 hPa 0,0 l/m 0 min 0 min 0,0 UV-I 40 W/m 0,0 km/h (0 Bft)
05.11.2013 08:32 4,9 C 3,9 C 94 % 998,7 hPa 0,0 l/m 0 min 0 min 0,0 UV-I 47 W/m 7,7 km/h (2 Bft)
05.11.2013 08:34 5,0 C 3,9 C 94 % 998,7 hPa 0,0 l/m 0 min 0 min 0,0 UV-I 54 W/m 2,6 km/h (1 Bft)
05.11.2013 08:36 5,1 C 3,9 C 94 % 998,7 hPa 0,0 l/m 0 min 0 min 0,0 UV-I 62 W/m 2,6 km/h (1 Bft)
05.11.2013 08:38 5,1 C 4,4 C 94 % 998,7 hPa 0,0 l/m 0 min 0 min 0,0 UV-I 72 W/m 2,6 km/h (1 Bft)
05.11.2013 08:40 5,2 C 4,4 C 94 % 998,7 hPa 0,0 l/m 0 min 0 min 0,0 UV-I 69 W/m 12,9 km/h (3 Bft)
05.11.2013 08:42 5,2 C 4,4 C 94 % 998,8 hPa 0,0 l/m 0 min 0 min 0,0 UV-I 72 W/m 5,1 km/h (1 Bft)
05.11.2013 08:44 5,3 C 4,4 C 93 % 998,8 hPa 0,0 l/m 0 min 0 min 0,0 UV-I 79 W/m 5,1 km/h (1 Bft)
05.11.2013 08:46 5,3 C 4,4 C 93 % 998,8 hPa 0,0 l/m 0 min 0 min 0,0 UV-I 81 W/m 0,0 km/h (0 Bft)
05.11.2013 08:48 5,4 C 4,4 C 93 % 998,8 hPa 0,0 l/m 0 min 0 min 0,0 UV-I 83 W/m 2,6 km/h (1 Bft)
05.11.2013 08:50 5,4 C 4,4 C 93 % 998,8 hPa 0,0 l/m 2 min 0 min 0,0 UV-I 100 W/m 7,7 km/h (2 Bft)
05.11.2013 08:52 5,5 C 5,0 C 93 % 998,8 hPa 0,0 l/m 0 min 0 min 0,0 UV-I 90 W/m 0,0 km/h (0 Bft)
05.11.2013 08:54 5,6 C 5,0 C 93 % 998,8 hPa 0,0 l/m 2 min 0 min 0,0 UV-I 113 W/m 7,7 km/h (2 Bft)
05.11.2013 08:56 5,6 C 5,0 C 93 % 999,0 hPa 0,0 l/m 0 min 0 min 0,0 UV-I 76 W/m 5,1 km/h (1 Bft)
05.11.2013 08:58 5,6 C 5,0 C 93 % 998,9 hPa 0,0 l/m 0 min 0 min 0,0 UV-I 79 W/m 0,0 km/h (0 Bft)
05.11.2013 09:00 5,6 C 5,0 C 92 % 999,0 hPa 0,0 l/m 0 min 0 min 0,0 UV-I 79 W/m 5,1 km/h (1 Bft)
05.11.2013 09:02 5,7 C 5,0 C 92 % 998,9 hPa 0,0 l/m 0 min 0 min 0,0 UV-I 83 W/m 0,0 km/h (0 Bft)
05.11.2013 09:04 5,7 C 5,0 C 92 % 998,8 hPa 0,0 l/m 0 min 0 min 0,0 UV-I 84 W/m 5,1 km/h (1 Bft)
05.11.2013 09:06 5,7 C 5,0 C 92 % 998,8 hPa 0,0 l/m 0 min 0 min 0,0 UV-I 86 W/m 7,7 km/h (2 Bft)
05.11.2013 09:08 5,7 C 5,0 C 92 % 998,8 hPa 0,0 l/m 0 min 0 min 0,0 UV-I 95 W/m 12,9 km/h (3 Bft)
05.11.2013 09:10 5,8 C 5,0 C 91 % 998,8 hPa 0,0 l/m 0 min 0 min 0,0 UV-I 98 W/m 2,6 km/h (1 Bft)
05.11.2013 09:12 5,8 C 5,0 C 91 % 998,8 hPa 0,0 l/m 0 min 0 min 0,0 UV-I 111 W/m 0,0 km/h (0 Bft)
05.11.2013 09:14 5,9 C 5,0 C 91 % 998,7 hPa 0,0 l/m 0 min 0 min 0,0 UV-I 107 W/m 5,1 km/h (1 Bft)
05.11.2013 09:16 5,9 C 5,0 C 91 % 998,8 hPa 0,0 l/m 0 min 0 min 0,0 UV-I 116 W/m 20,6 km/h (4 Bft)
05.11.2013 09:18 5,9 C 5,0 C 91 % 998,8 hPa 0,0 l/m 2 min 0 min 0,0 UV-I 130 W/m 18,0 km/h (3 Bft)
05.11.2013 09:20 6,0 C 5,6 C 91 % 998,8 hPa 0,0 l/m 2 min 0 min 0,0 UV-I 141 W/m 10,3 km/h (2 Bft)
05.11.2013 09:22 6,0 C 5,6 C 90 % 998,8 hPa 0,0 l/m 2 min 0 min 0,0 UV-I 148 W/m 5,1 km/h (1 Bft)
05.11.2013 09:24 6,1 C 5,6 C 90 % 998,7 hPa 0,0 l/m 2 min 0 min 0,0 UV-I 134 W/m 7,7 km/h (2 Bft)
05.11.2013 09:26 6,1 C 5,6 C 90 % 998,7 hPa 0,0 l/m 2 min 0 min 0,0 UV-I 134 W/m 7,7 km/h (2 Bft)
05.11.2013 09:28 6,1 C 5,6 C 90 % 998,7 hPa 0,0 l/m 2 min 0 min 0,0 UV-I 158 W/m 10,3 km/h (2 Bft)
05.11.2013 09:30 6,2 C 5,6 C 90 % 998,6 hPa 0,0 l/m 2 min 0 min 0,0 UV-I 186 W/m 0,0 km/h (0 Bft)
05.11.2013 09:32 6,3 C 5,6 C 90 % 998,6 hPa 0,0 l/m 2 min 0 min 0,0 UV-I 176 W/m 18,0 km/h (3 Bft)
05.11.2013 09:34 6,4 C 5,6 C 90 % 998,6 hPa 0,0 l/m 2 min 0 min 0,0 UV-I 236 W/m 12,9 km/h (3 Bft)
05.11.2013 09:36 6,4 C 5,6 C 90 % 998,6 hPa 0,0 l/m 2 min 0 min 0,0 UV-I 200 W/m 5,1 km/h (1 Bft)
05.11.2013 09:38 6,5 C 5,6 C 90 % 998,5 hPa 0,0 l/m 0 min 0 min 0,0 UV-I 127 W/m 10,3 km/h (2 Bft)
05.11.2013 09:40 6,6 C 6,1 C 89 % 998,6 hPa 0,0 l/m 0 min 0 min 0,0 UV-I 118 W/m 10,3 km/h (2 Bft)
05.11.2013 09:42 6,6 C 5,6 C 89 % 998,5 hPa 0,0 l/m 0 min 0 min 0,0 UV-I 135 W/m 5,1 km/h (1 Bft)
05.11.2013 09:44 6,6 C 5,6 C 89 % 998,6 hPa 0,0 l/m 0 min 0 min 0,0 UV-I 105 W/m 0,0 km/h (0 Bft)
05.11.2013 09:46 6,6 C 5,6 C 89 % 998,6 hPa 0,0 l/m 0 min 0 min 0,0 UV-I 98 W/m 7,7 km/h (2 Bft)
05.11.2013 09:48 6,6 C 5,6 C 88 % 998,7 hPa 0,0 l/m 0 min 0 min 0,0 UV-I 98 W/m 10,3 km/h (2 Bft)
05.11.2013 09:50 6,6 C 5,6 C 88 % 998,6 hPa 0,0 l/m 0 min 0 min 0,0 UV-I 104 W/m 7,7 km/h (2 Bft)
05.11.2013 09:52 6,6 C 6,1 C 88 % 998,5 hPa 0,0 l/m 0 min 0 min 0,0 UV-I 107 W/m 12,9 km/h (3 Bft)
05.11.2013 09:54 6,6 C 6,1 C 88 % 998,6 hPa 0,0 l/m 0 min 0 min 0,0 UV-I 107 W/m 15,4 km/h (3 Bft)
05.11.2013 09:56 6,6 C 6,1 C 88 % 998,7 hPa 0,0 l/m 0 min 0 min 0,0 UV-I 107 W/m 7,7 km/h (2 Bft)
05.11.2013 09:58 6,6 C 6,1 C 88 % 998,5 hPa 0,0 l/m 0 min 0 min 0,0 UV-I 104 W/m 5,1 km/h (1 Bft)
05.11.2013 10:00 6,6 C 6,1 C 88 % 998,5 hPa 0,0 l/m 0 min 0 min 0,0 UV-I 100 W/m 10,3 km/h (2 Bft)
05.11.2013 10:02 6,7 C 6,1 C 92 % 998,4 hPa 0,0 l/m 0 min 0 min 0,0 UV-I 98 W/m 5,1 km/h (1 Bft)
05.11.2013 10:04 6,7 C 6,1 C 88 % 998,4 hPa 0,0 l/m 0 min 0 min 0,0 UV-I 98 W/m 12,9 km/h (3 Bft)
05.11.2013 10:06 6,8 C 6,1 C 88 % 998,3 hPa 0,0 l/m 0 min 0 min 0,0 UV-I 100 W/m 5,1 km/h (1 Bft)
05.11.2013 10:08 6,8 C 6,1 C 88 % 998,3 hPa 0,0 l/m 0 min 0 min 0,0 UV-I 104 W/m 7,7 km/h (2 Bft)
05.11.2013 10:10 6,9 C 6,1 C 88 % 998,3 hPa 0,0 l/m 0 min 0 min 0,0 UV-I 105 W/m 5,1 km/h (1 Bft)
05.11.2013 10:12 6,9 C 6,1 C 88 % 998,4 hPa 0,0 l/m 0 min 0 min 0,0 UV-I 105 W/m 10,3 km/h (2 Bft)
05.11.2013 10:14 6,9 C 6,7 C 88 % 998,3 hPa 0,0 l/m 0 min 0 min 0,0 UV-I 105 W/m 0,0 km/h (0 Bft)
05.11.2013 10:16 7,1 C 6,7 C 88 % 998,3 hPa 0,0 l/m 0 min 0 min 0,0 UV-I 105 W/m 2,6 km/h (1 Bft)
05.11.2013 10:18 7,1 C 6,7 C 88 % 998,2 hPa 0,0 l/m 0 min 0 min 0,0 UV-I 105 W/m 7,7 km/h (2 Bft)
05.11.2013 10:20 7,2 C 6,7 C 88 % 998,2 hPa 0,0 l/m 0 min 0 min 0,0 UV-I 109 W/m 5,1 km/h (1 Bft)
05.11.2013 10:22 7,2 C 6,7 C 88 % 998,1 hPa 0,0 l/m 0 min 0 min 0,0 UV-I 113 W/m 10,3 km/h (2 Bft)
05.11.2013 10:24 7,3 C 6,7 C 87 % 998,2 hPa 0,0 l/m 0 min 0 min 0,0 UV-I 123 W/m 12,9 km/h (3 Bft)
05.11.2013 10:26 7,3 C 6,7 C 87 % 998,1 hPa 0,0 l/m 0 min 0 min 0,0 UV-I 127 W/m 10,3 km/h (2 Bft)
05.11.2013 10:28 7,4 C 6,7 C 87 % 998,1 hPa 0,0 l/m 0 min 0 min 0,0 UV-I 128 W/m 7,7 km/h (2 Bft)
05.11.2013 10:30 7,5 C 7,2 C 87 % 998,1 hPa 0,0 l/m 0 min 0 min 0,0 UV-I 128 W/m 7,7 km/h (2 Bft)
05.11.2013 10:32 7,6 C 7,2 C 86 % 997,9 hPa 0,0 l/m 0 min 0 min 0,0 UV-I 125 W/m 7,7 km/h (2 Bft)
05.11.2013 10:34 7,7 C 7,2 C 86 % 997,9 hPa 0,0 l/m 0 min 0 min 0,0 UV-I 125 W/m 12,9 km/h (3 Bft)
05.11.2013 10:36 7,7 C 7,2 C 86 % 997,9 hPa 0,0 l/m 0 min 0 min 0,0 UV-I 128 W/m 15,4 km/h (3 Bft)
05.11.2013 10:38 7,7 C 7,2 C 86 % 998,0 hPa 0,0 l/m 0 min 0 min 0,0 UV-I 134 W/m 18,0 km/h (3 Bft)
05.11.2013 10:40 7,8 C 7,2 C 85 % 997,8 hPa 0,0 l/m 0 min 0 min 0,0 UV-I 137 W/m 7,7 km/h (2 Bft)
05.11.2013 10:42 7,8 C 7,2 C 84 % 997,7 hPa 0,0 l/m 0 min 0 min 0,0 UV-I 141 W/m 15,4 km/h (3 Bft)
05.11.2013 10:44 7,9 C 7,2 C 85 % 997,7 hPa 0,0 l/m 0 min 0 min 0,0 UV-I 142 W/m 10,3 km/h (2 Bft)
05.11.2013 10:46 8,0 C 7,2 C 85 % 997,6 hPa 0,0 l/m 0 min 0 min 0,0 UV-I 148 W/m 5,1 km/h (1 Bft)
05.11.2013 10:48 8,0 C 7,2 C 85 % 997,6 hPa 0,0 l/m 0 min 0 min 0,0 UV-I 149 W/m 7,7 km/h (2 Bft)
05.11.2013 10:50 8,1 C 7,2 C 84 % 997,5 hPa 0,0 l/m 0 min 0 min 0,0 UV-I 144 W/m 15,4 km/h (3 Bft)
05.11.2013 10:52 8,2 C 7,2 C 85 % 997,5 hPa 0,0 l/m 0 min 0 min 0,0 UV-I 139 W/m 7,7 km/h (2 Bft)
05.11.2013 10:54 8,2 C 7,8 C 84 % 997,5 hPa 0,0 l/m 0 min 0 min 0,0 UV-I 141 W/m 10,3 km/h (2 Bft)
05.11.2013 10:56 8,2 C 7,8 C 85 % 997,5 hPa 0,0 l/m 0 min 0 min 0,0 UV-I 142 W/m 12,9 km/h (3 Bft)
05.11.2013 10:58 8,3 C 7,8 C 84 % 997,4 hPa 0,0 l/m 0 min 0 min 0,0 UV-I 151 W/m 18,0 km/h (3 Bft)
05.11.2013 11:00 8,3 C 7,8 C 84 % 997,4 hPa 0,0 l/m 0 min 0 min 0,0 UV-I 156 W/m 12,9 km/h (3 Bft)
05.11.2013 11:02 8,3 C 7,8 C 83 % 997,4 hPa 0,0 l/m 0 min 0 min 0,0 UV-I 155 W/m 10,3 km/h (2 Bft)
05.11.2013 11:04 8,4 C 7,8 C 83 % 997,4 hPa 0,0 l/m 0 min 0 min 0,0 UV-I 156 W/m 12,9 km/h (3 Bft)
05.11.2013 11:06 8,4 C 7,8 C 83 % 997,4 hPa 0,0 l/m 0 min 0 min 0,0 UV-I 149 W/m 10,3 km/h (2 Bft)
05.11.2013 11:08 8,4 C 7,8 C 83 % 997,4 hPa 0,0 l/m 0 min 0 min 0,0 UV-I 139 W/m 7,7 km/h (2 Bft)
05.11.2013 11:10 8,5 C 7,8 C 82 % 997,3 hPa 0,0 l/m 0 min 0 min 0,0 UV-I 128 W/m 12,9 km/h (3 Bft)
05.11.2013 11:12 8,5 C 7,8 C 83 % 997,3 hPa 0,0 l/m 0 min 0 min 0,0 UV-I 123 W/m 7,7 km/h (2 Bft)
05.11.2013 11:14 8,5 C 7,8 C 82 % 997,3 hPa 0,0 l/m 0 min 0 min 0,0 UV-I 123 W/m 12,9 km/h (3 Bft)
05.11.2013 11:16 8,5 C 7,8 C 82 % 997,3 hPa 0,0 l/m 0 min 0 min 0,0 UV-I 132 W/m 23,2 km/h (4 Bft)
05.11.2013 11:18 8,5 C 7,8 C 81 % 997,3 hPa 0,0 l/m 0 min 0 min 0,0 UV-I 137 W/m 15,4 km/h (3 Bft)
05.11.2013 11:20 8,6 C 7,8 C 82 % 997,3 hPa 0,0 l/m 0 min 0 min 0,0 UV-I 146 W/m 15,4 km/h (3 Bft)
05.11.2013 11:22 8,6 C 7,8 C 82 % 997,3 hPa 0,0 l/m 0 min 0 min 0,0 UV-I 174 W/m 10,3 km/h (2 Bft)
05.11.2013 11:24 8,7 C 7,8 C 82 % 997,2 hPa 0,0 l/m 0 min 0 min 0,0 UV-I 192 W/m 12,9 km/h (3 Bft)
05.11.2013 11:26 8,7 C 7,8 C 82 % 997,1 hPa 0,0 l/m 2 min 0 min 0,0 UV-I 213 W/m 12,9 km/h (3 Bft)
05.11.2013 11:28 8,7 C 8,3 C 81 % 997,0 hPa 0,0 l/m 2 min 0 min 0,0 UV-I 221 W/m 18,0 km/h (3 Bft)
05.11.2013 11:30 8,8 C 8,3 C 81 % 997,1 hPa 0,0 l/m 0 min 0 min 0,0 UV-I 199 W/m 15,4 km/h (3 Bft)
05.11.2013 11:32 8,8 C 8,3 C 81 % 997,0 hPa 0,0 l/m 0 min 0 min 0,0 UV-I 178 W/m 15,4 km/h (3 Bft)
05.11.2013 11:34 8,9 C 8,3 C 81 % 996,9 hPa 0,0 l/m 0 min 0 min 0,0 UV-I 156 W/m 15,4 km/h (3 Bft)
05.11.2013 11:36 8,9 C 8,3 C 81 % 997,0 hPa 0,0 l/m 0 min 0 min 0,0 UV-I 144 W/m 12,9 km/h (3 Bft)
05.11.2013 11:38 8,9 C 8,3 C 81 % 996,9 hPa 0,0 l/m 0 min 0 min 0,0 UV-I 135 W/m 10,3 km/h (2 Bft)
05.11.2013 11:40 8,9 C 8,3 C 81 % 996,9 hPa 0,0 l/m 0 min 0 min 0,0 UV-I 120 W/m 18,0 km/h (3 Bft)
05.11.2013 11:42 8,9 C 7,8 C 80 % 996,9 hPa 0,0 l/m 0 min 0 min 0,0 UV-I 118 W/m 12,9 km/h (3 Bft)
05.11.2013 11:44 8,8 C 7,8 C 81 % 996,9 hPa 0,0 l/m 0 min 0 min 0,0 UV-I 118 W/m 7,7 km/h (2 Bft)
05.11.2013 11:46 8,8 C 7,8 C 81 % 996,8 hPa 0,0 l/m 0 min 0 min 0,0 UV-I 118 W/m 2,6 km/h (1 Bft)
05.11.2013 11:48 8,8 C 7,8 C 81 % 996,7 hPa 0,0 l/m 0 min 0 min 0,0 UV-I 121 W/m 18,0 km/h (3 Bft)
05.11.2013 11:50 8,8 C 7,8 C 81 % 996,7 hPa 0,0 l/m 0 min 0 min 0,0 UV-I 125 W/m 18,0 km/h (3 Bft)
05.11.2013 11:52 8,8 C 7,8 C 81 % 996,7 hPa 0,0 l/m 0 min 0 min 0,0 UV-I 128 W/m 10,3 km/h (2 Bft)
05.11.2013 11:54 8,8 C 7,8 C 81 % 996,6 hPa 0,0 l/m 0 min 0 min 0,0 UV-I 128 W/m 12,9 km/h (3 Bft)
05.11.2013 11:56 8,8 C 7,8 C 81 % 996,6 hPa 0,0 l/m 0 min 0 min 0,0 UV-I 127 W/m 18,0 km/h (3 Bft)
05.11.2013 11:58 8,8 C 7,8 C 80 % 996,5 hPa 0,0 l/m 0 min 0 min 0,0 UV-I 125 W/m 25,7 km/h (4 Bft)
05.11.2013 12:00 8,8 C 7,8 C 80 % 996,4 hPa 0,0 l/m 0 min 0 min 0,0 UV-I 121 W/m 7,7 km/h (2 Bft)
05.11.2013 12:02 8,8 C 7,8 C 80 % 996,4 hPa 0,0 l/m 0 min 0 min 0,0 UV-I 121 W/m 25,7 km/h (4 Bft)
05.11.2013 12:06 8,8 C 7,8 C 80 % 996,4 hPa 0,0 l/m 0 min 0 min 0,0 UV-I 127 W/m 18,0 km/h (3 Bft)
05.11.2013 12:08 8,8 C 7,8 C 79 % 996,4 hPa 0,0 l/m 0 min 0 min 0,0 UV-I 130 W/m 15,4 km/h (3 Bft)
05.11.2013 12:10 8,8 C 7,8 C 79 % 996,3 hPa 0,0 l/m 0 min 0 min 0,0 UV-I 137 W/m 23,2 km/h (4 Bft)
05.11.2013 12:12 8,8 C 7,8 C 79 % 996,3 hPa 0,0 l/m 0 min 0 min 0,0 UV-I 137 W/m 15,4 km/h (3 Bft)
05.11.2013 12:14 8,8 C 7,8 C 79 % 996,4 hPa 0,0 l/m 0 min 0 min 0,0 UV-I 139 W/m 23,2 km/h (4 Bft)
05.11.2013 12:16 8,8 C 7,8 C 79 % 996,2 hPa 0,0 l/m 0 min 0 min 0,0 UV-I 142 W/m 12,9 km/h (3 Bft)
05.11.2013 12:18 8,8 C 7,8 C 79 % 996,1 hPa 0,0 l/m 0 min 0 min 0,0 UV-I 141 W/m 18,0 km/h (3 Bft)
05.11.2013 12:20 8,8 C 7,8 C 79 % 996,2 hPa 0,0 l/m 0 min 0 min 0,0 UV-I 134 W/m 10,3 km/h (2 Bft)
05.11.2013 12:22 8,8 C 7,8 C 79 % 996,2 hPa 0,0 l/m 0 min 0 min 0,0 UV-I 127 W/m 10,3 km/h (2 Bft)
05.11.2013 12:24 8,8 C 7,8 C 80 % 996,2 hPa 0,0 l/m 0 min 0 min 0,0 UV-I 134 W/m 10,3 km/h (2 Bft)
05.11.2013 12:26 8,8 C 7,8 C 79 % 996,2 hPa 0,0 l/m 0 min 0 min 0,0 UV-I 139 W/m 25,7 km/h (4 Bft)
05.11.2013 12:28 8,8 C 7,8 C 78 % 996,2 hPa 0,0 l/m 0 min 0 min 0,0 UV-I 134 W/m 30,9 km/h (5 Bft)
05.11.2013 12:30 8,8 C 7,8 C 78 % 996,1 hPa 0,0 l/m 0 min 0 min 0,0 UV-I 130 W/m 12,9 km/h (3 Bft)
05.11.2013 12:32 8,8 C 7,8 C 78 % 996,1 hPa 0,0 l/m 0 min 0 min 0,0 UV-I 123 W/m 15,4 km/h (3 Bft)
05.11.2013 12:34 8,8 C 7,8 C 78 % 996,1 hPa 0,0 l/m 0 min 0 min 0,0 UV-I 127 W/m 18,0 km/h (3 Bft)
05.11.2013 12:36 8,8 C 7,8 C 78 % 996,0 hPa 0,0 l/m 0 min 0 min 0,0 UV-I 134 W/m 15,4 km/h (3 Bft)
05.11.2013 12:38 8,8 C 7,8 C 78 % 996,0 hPa 0,0 l/m 0 min 0 min 0,0 UV-I 144 W/m 18,0 km/h (3 Bft)
05.11.2013 12:40 8,7 C 7,8 C 77 % 996,0 hPa 0,0 l/m 0 min 0 min 0,0 UV-I 163 W/m 28,3 km/h (4 Bft)
05.11.2013 12:42 8,8 C 7,8 C 78 % 996,0 hPa 0,0 l/m 0 min 0 min 0,0 UV-I 174 W/m 15,4 km/h (3 Bft)
05.11.2013 12:44 8,8 C 7,8 C 78 % 995,9 hPa 0,0 l/m 0 min 0 min 0,0 UV-I 190 W/m 30,9 km/h (5 Bft)
05.11.2013 12:46 8,8 C 7,8 C 77 % 996,0 hPa 0,0 l/m 0 min 0 min 0,0 UV-I 199 W/m 23,2 km/h (4 Bft)
05.11.2013 12:48 8,8 C 7,8 C 77 % 995,9 hPa 0,0 l/m 0 min 0 min 0,0 UV-I 193 W/m 25,7 km/h (4 Bft)
05.11.2013 12:50 8,8 C 7,8 C 77 % 995,8 hPa 0,0 l/m 0 min 0 min 0,0 UV-I 171 W/m 20,6 km/h (4 Bft)
05.11.2013 12:52 8,8 C 7,8 C 77 % 996,1 hPa 0,0 l/m 0 min 0 min 0,0 UV-I 153 W/m 25,7 km/h (4 Bft)
05.11.2013 12:54 8,8 C 7,8 C 76 % 996,1 hPa 0,0 l/m 0 min 0 min 0,0 UV-I 134 W/m 33,5 km/h (5 Bft)
05.11.2013 12:56 8,7 C 7,8 C 76 % 995,8 hPa 0,0 l/m 0 min 0 min 0,0 UV-I 118 W/m 20,6 km/h (4 Bft)
05.11.2013 12:58 8,7 C 7,8 C 76 % 995,8 hPa 0,0 l/m 0 min 0 min 0,0 UV-I 111 W/m 7,7 km/h (2 Bft)
05.11.2013 13:00 8,7 C 7,8 C 77 % 995,8 hPa 0,0 l/m 0 min 0 min 0,0 UV-I 107 W/m 28,3 km/h (4 Bft)
05.11.2013 13:02 8,7 C 7,8 C 77 % 995,7 hPa 0,0 l/m 0 min 0 min 0,0 UV-I 100 W/m 15,4 km/h (3 Bft)
05.11.2013 13:04 8,6 C 7,8 C 77 % 995,7 hPa 0,0 l/m 0 min 0 min 0,0 UV-I 95 W/m 25,7 km/h (4 Bft)
05.11.2013 13:06 8,6 C 7,8 C 77 % 995,7 hPa 0,0 l/m 0 min 0 min 0,0 UV-I 81 W/m 7,7 km/h (2 Bft)
05.11.2013 13:08 8,6 C 7,8 C 78 % 995,7 hPa 0,0 l/m 0 min 0 min 0,0 UV-I 83 W/m 18,0 km/h (3 Bft)
05.11.2013 13:10 8,6 C 7,8 C 78 % 995,6 hPa 0,0 l/m 0 min 0 min 0,0 UV-I 83 W/m 20,6 km/h (4 Bft)
05.11.2013 13:12 8,6 C 7,8 C 78 % 995,6 hPa 0,0 l/m 0 min 0 min 0,0 UV-I 83 W/m 10,3 km/h (2 Bft)
05.11.2013 13:14 8,6 C 7,8 C 78 % 995,5 hPa 0,0 l/m 0 min 0 min 0,0 UV-I 84 W/m 20,6 km/h (4 Bft)
05.11.2013 13:16 8,5 C 7,8 C 78 % 995,6 hPa 0,0 l/m 0 min 0 min 0,0 UV-I 84 W/m 18,0 km/h (3 Bft)
05.11.2013 13:18 8,5 C 7,2 C 78 % 995,5 hPa 0,0 l/m 0 min 0 min 0,0 UV-I 88 W/m 23,2 km/h (4 Bft)
05.11.2013 13:20 8,5 C 7,2 C 78 % 995,6 hPa 0,0 l/m 0 min 0 min 0,0 UV-I 84 W/m 33,5 km/h (5 Bft)
05.11.2013 13:22 8,5 C 7,2 C 78 % 995,5 hPa 0,0 l/m 0 min 0 min 0,0 UV-I 86 W/m 15,4 km/h (3 Bft)
05.11.2013 13:24 8,5 C 7,2 C 78 % 995,4 hPa 0,0 l/m 0 min 0 min 0,0 UV-I 83 W/m 15,4 km/h (3 Bft)
05.11.2013 13:26 8,4 C 7,2 C 78 % 995,5 hPa 0,0 l/m 0 min 0 min 0,0 UV-I 77 W/m 15,4 km/h (3 Bft)
05.11.2013 13:28 8,4 C 7,2 C 78 % 995,5 hPa 0,0 l/m 0 min 0 min 0,0 UV-I 70 W/m 20,6 km/h (4 Bft)
05.11.2013 13:30 8,4 C 7,2 C 78 % 995,5 hPa 0,0 l/m 0 min 0 min 0,0 UV-I 70 W/m 18,0 km/h (3 Bft)
05.11.2013 13:32 8,4 C 7,2 C 78 % 995,3 hPa 0,0 l/m 0 min 0 min 0,0 UV-I 65 W/m 12,9 km/h (3 Bft)
05.11.2013 13:34 8,4 C 7,2 C 78 % 995,3 hPa 0,0 l/m 0 min 0 min 0,0 UV-I 65 W/m 15,4 km/h (3 Bft)
05.11.2013 13:36 8,4 C 7,2 C 79 % 995,4 hPa 0,0 l/m 0 min 0 min 0,0 UV-I 63 W/m 12,9 km/h (3 Bft)
05.11.2013 13:38 8,3 C 7,2 C 78 % 995,4 hPa 0,0 l/m 0 min 2 min 0,0 UV-I 60 W/m 20,6 km/h (4 Bft)
05.11.2013 13:40 8,3 C 7,2 C 78 % 995,2 hPa 0,0 l/m 0 min 0 min 0,0 UV-I 56 W/m 23,2 km/h (4 Bft)
05.11.2013 13:42 8,3 C 6,7 C 78 % 995,3 hPa 0,0 l/m 0 min 2 min 0,0 UV-I 53 W/m 12,9 km/h (3 Bft)
05.11.2013 13:44 8,3 C 6,7 C 79 % 995,2 hPa 0,0 l/m 0 min 2 min 0,0 UV-I 47 W/m 10,3 km/h (2 Bft)
05.11.2013 13:46 8,2 C 6,7 C 79 % 995,2 hPa 0,0 l/m 0 min 2 min 0,0 UV-I 53 W/m 15,4 km/h (3 Bft)
05.11.2013 13:48 8,2 C 6,7 C 79 % 995,1 hPa 0,0 l/m 0 min 2 min 0,0 UV-I 53 W/m 18,0 km/h (3 Bft)
05.11.2013 13:50 8,2 C 6,1 C 80 % 995,2 hPa 0,0 l/m 0 min 2 min 0,0 UV-I 54 W/m 18,0 km/h (3 Bft)
05.11.2013 13:52 8,1 C 6,1 C 81 % 995,1 hPa 0,0 l/m 0 min 2 min 0,0 UV-I 51 W/m 25,7 km/h (4 Bft)
05.11.2013 13:54 7,9 C 5,6 C 81 % 995,1 hPa 0,0 l/m 0 min 2 min 0,0 UV-I 47 W/m 20,6 km/h (4 Bft)
05.11.2013 13:56 7,8 C 5,6 C 82 % 995,1 hPa 0,0 l/m 0 min 2 min 0,0 UV-I 42 W/m 25,7 km/h (4 Bft)
05.11.2013 13:58 7,7 C 5,6 C 82 % 995,1 hPa 0,2 l/m 0 min 2 min 0,0 UV-I 42 W/m 25,7 km/h (4 Bft)
05.11.2013 14:00 7,6 C 5,6 C 83 % 995,1 hPa 0,0 l/m 0 min 2 min 0,0 UV-I 42 W/m 18,0 km/h (3 Bft)
05.11.2013 14:02 7,5 C 5,0 C 83 % 995,0 hPa 0,0 l/m 0 min 2 min 0,0 UV-I 44 W/m 18,0 km/h (3 Bft)
05.11.2013 14:04 7,4 C 5,0 C 84 % 995,0 hPa 0,0 l/m 0 min 2 min 0,0 UV-I 46 W/m 12,9 km/h (3 Bft)
05.11.2013 14:06 7,3 C 5,0 C 85 % 994,9 hPa 0,0 l/m 0 min 2 min 0,0 UV-I 42 W/m 23,2 km/h (4 Bft)
05.11.2013 14:08 7,2 C 5,0 C 86 % 995,0 hPa 0,0 l/m 0 min 2 min 0,0 UV-I 44 W/m 20,6 km/h (4 Bft)
05.11.2013 14:10 7,1 C 5,0 C 86 % 994,9 hPa 0,2 l/m 0 min 2 min 0,0 UV-I 51 W/m 20,6 km/h (4 Bft)
05.11.2013 14:12 7,0 C 5,0 C 87 % 994,9 hPa 0,0 l/m 0 min 2 min 0,0 UV-I 51 W/m 18,0 km/h (3 Bft)
05.11.2013 14:14 6,9 C 5,0 C 87 % 994,9 hPa 0,0 l/m 0 min 2 min 0,0 UV-I 53 W/m 18,0 km/h (3 Bft)
05.11.2013 14:16 6,8 C 5,0 C 88 % 995,0 hPa 0,0 l/m 0 min 2 min 0,0 UV-I 56 W/m 7,7 km/h (2 Bft)
05.11.2013 14:18 6,7 C 5,0 C 89 % 995,0 hPa 0,2 l/m 0 min 2 min 0,0 UV-I 47 W/m 28,3 km/h (4 Bft)
05.11.2013 14:20 6,6 C 4,4 C 89 % 995,0 hPa 0,0 l/m 0 min 2 min 0,0 UV-I 40 W/m 28,3 km/h (4 Bft)
05.11.2013 14:22 6,4 C 4,4 C 89 % 994,8 hPa 0,0 l/m 0 min 2 min 0,0 UV-I 39 W/m 28,3 km/h (4 Bft)
05.11.2013 14:24 6,4 C 4,4 C 89 % 994,8 hPa 0,0 l/m 0 min 2 min 0,0 UV-I 40 W/m 15,4 km/h (3 Bft)
05.11.2013 14:26 6,3 C 4,4 C 90 % 994,8 hPa 0,2 l/m 0 min 2 min 0,0 UV-I 39 W/m 33,5 km/h (5 Bft)
05.11.2013 14:28 6,2 C 4,4 C 90 % 994,6 hPa 0,0 l/m 0 min 2 min 0,0 UV-I 40 W/m 18,0 km/h (3 Bft)
05.11.2013 14:30 6,1 C 4,4 C 90 % 994,5 hPa 0,2 l/m 0 min 2 min 0,0 UV-I 44 W/m 20,6 km/h (4 Bft)
05.11.2013 14:32 6,0 C 4,4 C 90 % 994,5 hPa 0,0 l/m 0 min 2 min 0,0 UV-I 47 W/m 12,9 km/h (3 Bft)
05.11.2013 14:34 5,9 C 4,4 C 90 % 994,4 hPa 0,0 l/m 0 min 2 min 0,0 UV-I 51 W/m 12,9 km/h (3 Bft)
05.11.2013 14:36 5,9 C 4,4 C 91 % 994,4 hPa 0,0 l/m 0 min 2 min 0,0 UV-I 53 W/m 15,4 km/h (3 Bft)
05.11.2013 14:38 5,8 C 4,4 C 91 % 994,3 hPa 0,2 l/m 0 min 2 min 0,0 UV-I 51 W/m 15,4 km/h (3 Bft)
05.11.2013 14:40 5,8 C 4,4 C 91 % 994,2 hPa 0,0 l/m 0 min 2 min 0,0 UV-I 47 W/m 20,6 km/h (4 Bft)
05.11.2013 14:42 5,8 C 4,4 C 91 % 994,1 hPa 0,0 l/m 0 min 2 min 0,0 UV-I 40 W/m 25,7 km/h (4 Bft)
05.11.2013 14:44 5,7 C 4,4 C 92 % 994,0 hPa 0,2 l/m 0 min 2 min 0,0 UV-I 40 W/m 12,9 km/h (3 Bft)
05.11.2013 14:46 5,7 C 4,4 C 92 % 994,0 hPa 0,0 l/m 0 min 2 min 0,0 UV-I 30 W/m 12,9 km/h (3 Bft)
05.11.2013 14:48 5,7 C 4,4 C 92 % 994,0 hPa 0,0 l/m 0 min 2 min 0,0 UV-I 23 W/m 15,4 km/h (3 Bft)
05.11.2013 14:50 5,6 C 4,4 C 92 % 993,9 hPa 0,0 l/m 0 min 2 min 0,0 UV-I 26 W/m 20,6 km/h (4 Bft)
05.11.2013 14:52 5,6 C 4,4 C 92 % 993,7 hPa 0,2 l/m 0 min 2 min 0,0 UV-I 23 W/m 23,2 km/h (4 Bft)
05.11.2013 14:54 5,6 C 4,4 C 92 % 993,7 hPa 0,0 l/m 0 min 2 min 0,0 UV-I 21 W/m 20,6 km/h (4 Bft)
05.11.2013 14:56 5,5 C 3,9 C 93 % 993,7 hPa 0,2 l/m 0 min 2 min 0,0 UV-I 19 W/m 18,0 km/h (3 Bft)
05.11.2013 14:58 5,5 C 4,4 C 93 % 993,5 hPa 0,0 l/m 0 min 2 min 0,0 UV-I 21 W/m 20,6 km/h (4 Bft)
05.11.2013 15:00 5,4 C 3,9 C 93 % 993,6 hPa 0,0 l/m 0 min 2 min 0,0 UV-I 21 W/m 33,5 km/h (5 Bft)
05.11.2013 15:02 5,4 C 3,9 C 93 % 993,6 hPa 0,2 l/m 0 min 2 min 0,0 UV-I 26 W/m 20,6 km/h (4 Bft)
05.11.2013 15:04 5,4 C 3,9 C 93 % 993,5 hPa 0,0 l/m 0 min 2 min 0,0 UV-I 26 W/m 18,0 km/h (3 Bft)
05.11.2013 15:06 5,4 C 3,9 C 93 % 993,3 hPa 0,0 l/m 0 min 2 min 0,0 UV-I 19 W/m 20,6 km/h (4 Bft)
05.11.2013 15:08 5,4 C 4,4 C 93 % 993,4 hPa 0,2 l/m 0 min 2 min 0,0 UV-I 18 W/m 25,7 km/h (4 Bft)
05.11.2013 15:10 5,3 C 3,9 C 93 % 993,5 hPa 0,0 l/m 0 min 2 min 0,0 UV-I 21 W/m 15,4 km/h (3 Bft)
05.11.2013 15:12 5,3 C 3,9 C 94 % 993,3 hPa 0,0 l/m 0 min 2 min 0,0 UV-I 25 W/m 15,4 km/h (3 Bft)
05.11.2013 15:14 5,3 C 3,9 C 94 % 993,2 hPa 0,0 l/m 0 min 2 min 0,0 UV-I 26 W/m 15,4 km/h (3 Bft)
05.11.2013 15:16 5,3 C 4,4 C 94 % 993,3 hPa 0,0 l/m 0 min 2 min 0,0 UV-I 26 W/m 20,6 km/h (4 Bft)
05.11.2013 15:18 5,3 C 3,9 C 94 % 993,2 hPa 0,2 l/m 0 min 2 min 0,0 UV-I 23 W/m 15,4 km/h (3 Bft)
05.11.2013 15:20 5,3 C 3,9 C 94 % 993,2 hPa 0,0 l/m 0 min 2 min 0,0 UV-I 21 W/m 15,4 km/h (3 Bft)
05.11.2013 15:22 5,3 C 3,9 C 94 % 993,2 hPa 0,0 l/m 0 min 2 min 0,0 UV-I 21 W/m 10,3 km/h (2 Bft)
05.11.2013 15:24 5,3 C 3,9 C 94 % 993,0 hPa 0,2 l/m 0 min 2 min 0,0 UV-I 23 W/m 15,4 km/h (3 Bft)
05.11.2013 15:26 5,3 C 4,4 C 94 % 993,0 hPa 0,0 l/m 0 min 2 min 0,0 UV-I 19 W/m 12,9 km/h (3 Bft)
05.11.2013 15:28 5,2 C 3,9 C 94 % 992,9 hPa 0,0 l/m 0 min 2 min 0,0 UV-I 18 W/m 12,9 km/h (3 Bft)
05.11.2013 15:30 5,3 C 3,9 C 94 % 993,0 hPa 0,0 l/m 0 min 2 min 0,0 UV-I 16 W/m 18,0 km/h (3 Bft)
05.11.2013 15:32 5,3 C 3,9 C 94 % 993,0 hPa 0,0 l/m 0 min 2 min 0,0 UV-I 14 W/m 12,9 km/h (3 Bft)
05.11.2013 15:34 5,3 C 3,9 C 95 % 993,0 hPa 0,2 l/m 0 min 2 min 0,0 UV-I 12 W/m 20,6 km/h (4 Bft)
05.11.2013 15:36 5,3 C 3,9 C 94 % 992,9 hPa 0,0 l/m 0 min 2 min 0,0 UV-I 12 W/m 20,6 km/h (4 Bft)
05.11.2013 15:38 5,3 C 3,9 C 95 % 992,9 hPa 0,0 l/m 0 min 2 min 0,0 UV-I 11 W/m 7,7 km/h (2 Bft)
05.11.2013 15:40 5,3 C 4,4 C 95 % 992,8 hPa 0,0 l/m 0 min 2 min 0,0 UV-I 12 W/m 12,9 km/h (3 Bft)
05.11.2013 15:42 5,3 C 4,4 C 95 % 992,8 hPa 0,0 l/m 0 min 2 min 0,0 UV-I 12 W/m 23,2 km/h (4 Bft)
05.11.2013 15:44 5,3 C 4,4 C 95 % 992,8 hPa 0,0 l/m 0 min 2 min 0,0 UV-I 14 W/m 15,4 km/h (3 Bft)
05.11.2013 15:46 5,3 C 4,4 C 95 % 992,8 hPa 0,0 l/m 0 min 2 min 0,0 UV-I 18 W/m 12,9 km/h (3 Bft)
05.11.2013 15:48 5,3 C 4,4 C 95 % 992,6 hPa 0,0 l/m 0 min 2 min 0,0 UV-I 16 W/m 15,4 km/h (3 Bft)
05.11.2013 15:50 5,4 C 4,4 C 95 % 992,6 hPa 0,0 l/m 0 min 2 min 0,0 UV-I 16 W/m 15,4 km/h (3 Bft)
05.11.2013 15:52 5,4 C 4,4 C 95 % 992,6 hPa 0,0 l/m 0 min 2 min 0,0 UV-I 14 W/m 12,9 km/h (3 Bft)
05.11.2013 15:54 5,4 C 4,4 C 95 % 992,4 hPa 0,0 l/m 0 min 2 min 0,0 UV-I 14 W/m 23,2 km/h (4 Bft)
05.11.2013 15:56 5,4 C 4,4 C 95 % 992,5 hPa 0,0 l/m 0 min 2 min 0,0 UV-I 16 W/m 23,2 km/h (4 Bft)
05.11.2013 15:58 5,5 C 4,4 C 95 % 992,5 hPa 0,0 l/m 0 min 2 min 0,0 UV-I 14 W/m 15,4 km/h (3 Bft)
05.11.2013 16:00 5,5 C 4,4 C 95 % 992,5 hPa 0,0 l/m 0 min 2 min 0,0 UV-I 14 W/m 15,4 km/h (3 Bft)
05.11.2013 16:02 5,5 C 4,4 C 95 % 992,5 hPa 0,2 l/m 0 min 2 min 0,0 UV-I 14 W/m 15,4 km/h (3 Bft)
05.11.2013 16:04 5,5 C 4,4 C 95 % 992,4 hPa 0,0 l/m 0 min 2 min 0,0 UV-I 14 W/m 15,4 km/h (3 Bft)
05.11.2013 16:06 5,6 C 4,4 C 95 % 992,4 hPa 0,0 l/m 0 min 2 min 0,0 UV-I 16 W/m 18,0 km/h (3 Bft)
05.11.2013 16:08 5,6 C 4,4 C 95 % 992,3 hPa 0,0 l/m 0 min 2 min 0,0 UV-I 16 W/m 12,9 km/h (3 Bft)
05.11.2013 16:10 5,6 C 4,4 C 95 % 992,3 hPa 0,0 l/m 0 min 2 min 0,0 UV-I 11 W/m 20,6 km/h (4 Bft)
05.11.2013 16:12 5,6 C 4,4 C 95 % 992,2 hPa 0,0 l/m 0 min 2 min 0,0 UV-I 11 W/m 23,2 km/h (4 Bft)
05.11.2013 16:14 5,6 C 4,4 C 96 % 992,2 hPa 0,2 l/m 0 min 2 min 0,0 UV-I 9 W/m 18,0 km/h (3 Bft)
05.11.2013 16:16 5,6 C 4,4 C 96 % 992,2 hPa 0,0 l/m 0 min 2 min 0,0 UV-I 7 W/m 12,9 km/h (3 Bft)
05.11.2013 16:18 5,6 C 4,4 C 96 % 992,2 hPa 0,0 l/m 0 min 2 min 0,0 UV-I 7 W/m 12,9 km/h (3 Bft)
05.11.2013 16:20 5,6 C 4,4 C 96 % 992,2 hPa 0,0 l/m 0 min 2 min 0,0 UV-I 7 W/m 12,9 km/h (3 Bft)
05.11.2013 16:22 5,6 C 4,4 C 96 % 992,2 hPa 0,0 l/m 0 min 2 min 0,0 UV-I 7 W/m 10,3 km/h (2 Bft)
05.11.2013 16:24 5,6 C 4,4 C 96 % 992,2 hPa 0,0 l/m 0 min 2 min 0,0 UV-I 7 W/m 10,3 km/h (2 Bft)
05.11.2013 16:26 5,6 C 4,4 C 96 % 992,1 hPa 0,0 l/m 0 min 2 min 0,0 UV-I 7 W/m 18,0 km/h (3 Bft)
05.11.2013 16:28 5,6 C 4,4 C 96 % 992,2 hPa 0,0 l/m 0 min 2 min 0,0 UV-I 7 W/m 18,0 km/h (3 Bft)
05.11.2013 16:30 5,6 C 4,4 C 96 % 992,1 hPa 0,0 l/m 0 min 2 min 0,0 UV-I 7 W/m 18,0 km/h (3 Bft)
05.11.2013 16:32 5,7 C 4,4 C 96 % 992,1 hPa 0,2 l/m 0 min 2 min 0,0 UV-I 7 W/m 15,4 km/h (3 Bft)
05.11.2013 16:34 5,7 C 4,4 C 96 % 992,0 hPa 0,0 l/m 0 min 2 min 0,0 UV-I 7 W/m 12,9 km/h (3 Bft)
05.11.2013 16:36 5,7 C 4,4 C 96 % 992,0 hPa 0,0 l/m 0 min 2 min 0,0 UV-I 5 W/m 5,1 km/h (1 Bft)
05.11.2013 16:38 5,7 C 4,4 C 96 % 992,0 hPa 0,0 l/m 0 min 2 min 0,0 UV-I 5 W/m 2,6 km/h (1 Bft)
05.11.2013 16:40 5,7 C 4,4 C 96 % 992,1 hPa 0,0 l/m 0 min 2 min 0,0 UV-I 5 W/m 12,9 km/h (3 Bft)
05.11.2013 16:42 5,7 C 4,4 C 96 % 992,1 hPa 0,0 l/m 0 min 2 min 0,0 UV-I 5 W/m 15,4 km/h (3 Bft)
05.11.2013 16:44 5,7 C 4,4 C 96 % 992,0 hPa 0,2 l/m 0 min 2 min 0,0 UV-I 5 W/m 15,4 km/h (3 Bft)
05.11.2013 16:46 5,7 C 4,4 C 96 % 992,0 hPa 0,0 l/m 0 min 2 min 0,0 UV-I 0 W/m 12,9 km/h (3 Bft)
05.11.2013 16:48 5,7 C 4,4 C 96 % 992,0 hPa 0,0 l/m 0 min 2 min 0,0 UV-I 0 W/m 23,2 km/h (4 Bft)
05.11.2013 16:50 5,7 C 4,4 C 96 % 991,9 hPa 0,2 l/m 0 min 2 min 0,0 UV-I 0 W/m 20,6 km/h (4 Bft)
05.11.2013 16:52 5,7 C 4,4 C 96 % 991,9 hPa 0,0 l/m 0 min 2 min 0,0 UV-I 0 W/m 15,4 km/h (3 Bft)
05.11.2013 16:54 5,7 C 4,4 C 96 % 991,8 hPa 0,0 l/m 0 min 2 min 0,0 UV-I 0 W/m 12,9 km/h (3 Bft)
05.11.2013 16:56 5,7 C 4,4 C 96 % 991,9 hPa 0,0 l/m 0 min 2 min 0,0 UV-I 0 W/m 7,7 km/h (2 Bft)
05.11.2013 16:58 5,7 C 4,4 C 96 % 991,8 hPa 0,0 l/m 0 min 2 min 0,0 UV-I 0 W/m 15,4 km/h (3 Bft)
05.11.2013 17:00 5,7 C 4,4 C 96 % 991,9 hPa 0,2 l/m 0 min 2 min 0,0 UV-I 0 W/m 5,1 km/h (1 Bft)
05.11.2013 17:02 5,7 C 4,4 C 96 % 991,9 hPa 0,0 l/m 0 min 2 min 0,0 UV-I 0 W/m 7,7 km/h (2 Bft)
05.11.2013 17:04 5,6 C 4,4 C 96 % 991,9 hPa 0,0 l/m 0 min 2 min 0,0 UV-I 0 W/m 10,3 km/h (2 Bft)
05.11.2013 17:06 5,6 C 4,4 C 96 % 991,9 hPa 0,0 l/m 0 min 2 min 0,0 UV-I 0 W/m 10,3 km/h (2 Bft)
05.11.2013 17:08 5,6 C 4,4 C 96 % 991,9 hPa 0,0 l/m 0 min 2 min 0,0 UV-I 0 W/m 20,6 km/h (4 Bft)
05.11.2013 17:10 5,6 C 4,4 C 96 % 991,9 hPa 0,0 l/m 0 min 2 min 0,0 UV-I 0 W/m 18,0 km/h (3 Bft)
05.11.2013 17:12 5,6 C 4,4 C 96 % 991,9 hPa 0,0 l/m 0 min 2 min 0,0 UV-I 0 W/m 18,0 km/h (3 Bft)
05.11.2013 17:14 5,6 C 4,4 C 96 % 991,8 hPa 0,2 l/m 0 min 2 min 0,0 UV-I 0 W/m 15,4 km/h (3 Bft)
05.11.2013 17:16 5,6 C 4,4 C 96 % 991,8 hPa 0,0 l/m 0 min 2 min 0,0 UV-I 0 W/m 10,3 km/h (2 Bft)
05.11.2013 17:18 5,6 C 4,4 C 96 % 991,8 hPa 0,0 l/m 0 min 2 min 0,0 UV-I 0 W/m 18,0 km/h (3 Bft)
05.11.2013 17:20 5,6 C 4,4 C 96 % 991,8 hPa 0,0 l/m 0 min 2 min 0,0 UV-I 0 W/m 12,9 km/h (3 Bft)
05.11.2013 17:22 5,6 C 4,4 C 96 % 991,9 hPa 0,0 l/m 0 min 2 min 0,0 UV-I 0 W/m 2,6 km/h (1 Bft)
05.11.2013 17:24 5,7 C 4,4 C 96 % 991,8 hPa 0,0 l/m 0 min 2 min 0,0 UV-I 0 W/m 10,3 km/h (2 Bft)
05.11.2013 17:26 5,6 C 4,4 C 96 % 991,7 hPa 0,0 l/m 0 min 2 min 0,0 UV-I 0 W/m 10,3 km/h (2 Bft)
05.11.2013 17:28 5,7 C 4,4 C 96 % 991,7 hPa 0,2 l/m 0 min 2 min 0,0 UV-I 0 W/m 10,3 km/h (2 Bft)
05.11.2013 17:30 5,7 C 4,4 C 96 % 991,6 hPa 0,0 l/m 0 min 2 min 0,0 UV-I 0 W/m 2,6 km/h (1 Bft)
05.11.2013 17:32 5,7 C 4,4 C 96 % 991,7 hPa 0,0 l/m 0 min 2 min 0,0 UV-I 0 W/m 15,4 km/h (3 Bft)
05.11.2013 17:34 5,7 C 4,4 C 96 % 991,7 hPa 0,0 l/m 0 min 2 min 0,0 UV-I 0 W/m 10,3 km/h (2 Bft)
05.11.2013 17:36 5,7 C 4,4 C 96 % 991,6 hPa 0,0 l/m 0 min 2 min 0,0 UV-I 0 W/m 5,1 km/h (1 Bft)
05.11.2013 17:38 5,7 C 4,4 C 96 % 991,7 hPa 0,0 l/m 0 min 2 min 0,0 UV-I 0 W/m 5,1 km/h (1 Bft)
05.11.2013 17:40 5,7 C 4,4 C 96 % 991,7 hPa 0,2 l/m 0 min 2 min 0,0 UV-I 0 W/m 5,1 km/h (1 Bft)
05.11.2013 17:42 5,7 C 4,4 C 96 % 991,6 hPa 0,0 l/m 0 min 2 min 0,0 UV-I 0 W/m 2,6 km/h (1 Bft)
05.11.2013 17:44 5,7 C 4,4 C 96 % 991,7 hPa 0,0 l/m 0 min 2 min 0,0 UV-I 0 W/m 10,3 km/h (2 Bft)
05.11.2013 17:46 5,7 C 4,4 C 96 % 991,7 hPa 0,0 l/m 0 min 2 min 0,0 UV-I 0 W/m 0,0 km/h (0 Bft)
05.11.2013 17:48 5,7 C 4,4 C 96 % 991,7 hPa 0,2 l/m 0 min 2 min 0,0 UV-I 0 W/m 2,6 km/h (1 Bft)
05.11.2013 17:50 5,7 C 4,4 C 96 % 991,7 hPa 0,0 l/m 0 min 2 min 0,0 UV-I 0 W/m 0,0 km/h (0 Bft)
05.11.2013 17:52 5,7 C 4,4 C 96 % 991,7 hPa 0,0 l/m 0 min 2 min 0,0 UV-I 0 W/m 10,3 km/h (2 Bft)
05.11.2013 17:54 5,7 C 4,4 C 96 % 991,8 hPa 0,2 l/m 0 min 2 min 0,0 UV-I 0 W/m 7,7 km/h (2 Bft)
05.11.2013 17:56 5,7 C 4,4 C 97 % 991,8 hPa 0,0 l/m 0 min 2 min 0,0 UV-I 0 W/m 0,0 km/h (0 Bft)
05.11.2013 17:58 5,7 C 4,4 C 97 % 991,7 hPa 0,2 l/m 0 min 2 min 0,0 UV-I 0 W/m 20,6 km/h (4 Bft)
05.11.2013 18:00 5,7 C 4,4 C 97 % 991,7 hPa 0,0 l/m 0 min 2 min 0,0 UV-I 0 W/m 15,4 km/h (3 Bft)
05.11.2013 18:02 5,7 C 4,4 C 97 % 991,7 hPa 0,0 l/m 0 min 2 min 0,0 UV-I 0 W/m 5,1 km/h (1 Bft)
05.11.2013 18:06 5,7 C 4,4 C 97 % 991,6 hPa 0,2 l/m 0 min 2 min 0,0 UV-I 0 W/m 10,3 km/h (2 Bft)
05.11.2013 18:08 5,7 C 4,4 C 97 % 991,6 hPa 0,0 l/m 0 min 2 min 0,0 UV-I 0 W/m 7,7 km/h (2 Bft)
05.11.2013 18:10 5,7 C 4,4 C 97 % 991,7 hPa 0,0 l/m 0 min 2 min 0,0 UV-I 0 W/m 0,0 km/h (0 Bft)
05.11.2013 18:12 5,7 C 4,4 C 97 % 991,6 hPa 0,0 l/m 0 min 2 min 0,0 UV-I 0 W/m 0,0 km/h (0 Bft)
05.11.2013 18:14 5,7 C 4,4 C 97 % 991,6 hPa 0,0 l/m 0 min 2 min 0,0 UV-I 0 W/m 0,0 km/h (0 Bft)
05.11.2013 18:16 5,7 C 4,4 C 97 % 991,7 hPa 0,0 l/m 0 min 2 min 0,0 UV-I 0 W/m 7,7 km/h (2 Bft)
05.11.2013 18:18 5,7 C 4,4 C 97 % 991,6 hPa 0,2 l/m 0 min 2 min 0,0 UV-I 0 W/m 7,7 km/h (2 Bft)
05.11.2013 18:20 5,7 C 4,4 C 97 % 991,5 hPa 0,0 l/m 0 min 2 min 0,0 UV-I 0 W/m 0,0 km/h (0 Bft)
05.11.2013 18:22 5,7 C 4,4 C 97 % 991,6 hPa 0,0 l/m 0 min 2 min 0,0 UV-I 0 W/m 15,4 km/h (3 Bft)
05.11.2013 18:24 5,7 C 4,4 C 97 % 991,6 hPa 0,0 l/m 0 min 2 min 0,0 UV-I 0 W/m 0,0 km/h (0 Bft)
05.11.2013 18:26 5,7 C 4,4 C 97 % 991,5 hPa 0,0 l/m 0 min 2 min 0,0 UV-I 0 W/m 12,9 km/h (3 Bft)
05.11.2013 18:28 5,7 C 4,4 C 97 % 991,5 hPa 0,0 l/m 0 min 2 min 0,0 UV-I 0 W/m 7,7 km/h (2 Bft)
05.11.2013 18:30 5,7 C 4,4 C 97 % 991,5 hPa 0,0 l/m 0 min 0 min 0,0 UV-I 0 W/m 5,1 km/h (1 Bft)
05.11.2013 18:32 5,7 C 4,4 C 97 % 991,5 hPa 0,0 l/m 0 min 2 min 0,0 UV-I 0 W/m 12,9 km/h (3 Bft)
05.11.2013 18:34 5,7 C 4,4 C 97 % 991,5 hPa 0,0 l/m 0 min 2 min 0,0 UV-I 0 W/m 0,0 km/h (0 Bft)
05.11.2013 18:36 5,7 C 4,4 C 97 % 991,5 hPa 0,0 l/m 0 min 2 min 0,0 UV-I 0 W/m 10,3 km/h (2 Bft)
05.11.2013 18:38 5,7 C 5,0 C 97 % 991,5 hPa 0,0 l/m 0 min 0 min 0,0 UV-I 0 W/m 2,6 km/h (1 Bft)
05.11.2013 18:40 5,7 C 5,0 C 97 % 991,5 hPa 0,0 l/m 0 min 2 min 0,0 UV-I 0 W/m 5,1 km/h (1 Bft)
05.11.2013 18:42 5,8 C 5,0 C 97 % 991,5 hPa 0,0 l/m 0 min 0 min 0,0 UV-I 0 W/m 5,1 km/h (1 Bft)
05.11.2013 18:44 5,8 C 5,0 C 97 % 991,4 hPa 0,0 l/m 0 min 2 min 0,0 UV-I 0 W/m 5,1 km/h (1 Bft)
05.11.2013 18:46 5,8 C 5,0 C 97 % 991,4 hPa 0,0 l/m 0 min 0 min 0,0 UV-I 0 W/m 10,3 km/h (2 Bft)
05.11.2013 18:48 5,8 C 5,0 C 97 % 991,4 hPa 0,0 l/m 0 min 2 min 0,0 UV-I 0 W/m 15,4 km/h (3 Bft)
05.11.2013 18:50 5,8 C 5,0 C 97 % 991,4 hPa 0,0 l/m 0 min 2 min 0,0 UV-I 0 W/m 2,6 km/h (1 Bft)
05.11.2013 18:52 5,8 C 5,0 C 97 % 991,4 hPa 0,0 l/m 0 min 2 min 0,0 UV-I 0 W/m 0,0 km/h (0 Bft)
05.11.2013 18:54 5,8 C 5,0 C 97 % 991,4 hPa 0,0 l/m 0 min 2 min 0,0 UV-I 0 W/m 10,3 km/h (2 Bft)
05.11.2013 18:56 5,8 C 5,0 C 97 % 991,4 hPa 0,0 l/m 0 min 2 min 0,0 UV-I 0 W/m 18,0 km/h (3 Bft)
05.11.2013 18:58 5,8 C 5,0 C 97 % 991,3 hPa 0,0 l/m 0 min 2 min 0,0 UV-I 0 W/m 15,4 km/h (3 Bft)
05.11.2013 19:00 5,8 C 5,0 C 97 % 991,4 hPa 0,0 l/m 0 min 2 min 0,0 UV-I 0 W/m 7,7 km/h (2 Bft)
05.11.2013 19:02 5,8 C 5,0 C 97 % 991,4 hPa 0,0 l/m 0 min 2 min 0,0 UV-I 0 W/m 7,7 km/h (2 Bft)
05.11.2013 19:04 5,8 C 5,0 C 97 % 991,3 hPa 0,0 l/m 0 min 2 min 0,0 UV-I 0 W/m 10,3 km/h (2 Bft)
05.11.2013 19:06 5,8 C 5,0 C 97 % 991,3 hPa 0,0 l/m 0 min 2 min 0,0 UV-I 0 W/m 10,3 km/h (2 Bft)
05.11.2013 19:08 5,8 C 5,0 C 97 % 991,3 hPa 0,0 l/m 0 min 2 min 0,0 UV-I 0 W/m 20,6 km/h (4 Bft)
05.11.2013 19:10 5,8 C 5,0 C 97 % 991,3 hPa 0,0 l/m 0 min 2 min 0,0 UV-I 0 W/m 12,9 km/h (3 Bft)
05.11.2013 19:12 5,8 C 5,0 C 97 % 991,3 hPa 0,2 l/m 0 min 2 min 0,0 UV-I 0 W/m 10,3 km/h (2 Bft)
05.11.2013 19:14 5,8 C 5,0 C 97 % 991,3 hPa 0,0 l/m 0 min 2 min 0,0 UV-I 0 W/m 10,3 km/h (2 Bft)
05.11.2013 19:16 5,9 C 5,0 C 97 % 991,3 hPa 0,0 l/m 0 min 2 min 0,0 UV-I 0 W/m 5,1 km/h (1 Bft)
05.11.2013 19:18 5,9 C 5,0 C 97 % 991,4 hPa 0,0 l/m 0 min 2 min 0,0 UV-I 0 W/m 5,1 km/h (1 Bft)
05.11.2013 19:20 5,9 C 5,0 C 97 % 991,4 hPa 0,0 l/m 0 min 2 min 0,0 UV-I 0 W/m 15,4 km/h (3 Bft)
05.11.2013 19:22 5,9 C 5,0 C 97 % 991,4 hPa 0,0 l/m 0 min 2 min 0,0 UV-I 0 W/m 5,1 km/h (1 Bft)
05.11.2013 19:24 5,9 C 5,0 C 97 % 991,4 hPa 0,0 l/m 0 min 2 min 0,0 UV-I 0 W/m 5,1 km/h (1 Bft)
05.11.2013 19:26 5,9 C 5,0 C 97 % 991,3 hPa 0,0 l/m 0 min 2 min 0,0 UV-I 0 W/m 10,3 km/h (2 Bft)
05.11.2013 19:28 5,9 C 5,0 C 97 % 991,3 hPa 0,0 l/m 0 min 2 min 0,0 UV-I 0 W/m 10,3 km/h (2 Bft)
05.11.2013 19:30 5,9 C 5,0 C 97 % 991,3 hPa 0,0 l/m 0 min 2 min 0,0 UV-I 0 W/m 0,0 km/h (0 Bft)
05.11.2013 19:32 5,9 C 5,0 C 97 % 991,3 hPa 0,0 l/m 0 min 2 min 0,0 UV-I 0 W/m 0,0 km/h (0 Bft)
05.11.2013 19:34 5,9 C 5,0 C 97 % 991,4 hPa 0,0 l/m 0 min 2 min 0,0 UV-I 0 W/m 0,0 km/h (0 Bft)
05.11.2013 19:36 6,0 C 5,0 C 97 % 991,4 hPa 0,2 l/m 0 min 2 min 0,0 UV-I 0 W/m 0,0 km/h (0 Bft)
05.11.2013 19:38 6,0 C 5,0 C 98 % 991,4 hPa 0,0 l/m 0 min 2 min 0,0 UV-I 0 W/m 0,0 km/h (0 Bft)
05.11.2013 19:40 6,0 C 5,0 C 98 % 991,4 hPa 0,0 l/m 0 min 0 min 0,0 UV-I 0 W/m 0,0 km/h (0 Bft)
05.11.2013 19:42 6,0 C 5,0 C 98 % 991,4 hPa 0,0 l/m 0 min 2 min 0,0 UV-I 0 W/m 2,6 km/h (1 Bft)
05.11.2013 19:44 6,1 C 5,0 C 98 % 991,3 hPa 0,0 l/m 0 min 0 min 0,0 UV-I 0 W/m 5,1 km/h (1 Bft)
05.11.2013 19:46 6,1 C 5,0 C 98 % 991,2 hPa 0,0 l/m 0 min 0 min 0,0 UV-I 0 W/m 0,0 km/h (0 Bft)
05.11.2013 19:48 6,1 C 5,0 C 98 % 991,4 hPa 0,0 l/m 0 min 0 min 0,0 UV-I 0 W/m 2,6 km/h (1 Bft)
05.11.2013 19:50 6,1 C 5,0 C 98 % 991,4 hPa 0,0 l/m 0 min 0 min 0,0 UV-I 0 W/m 0,0 km/h (0 Bft)
05.11.2013 19:52 6,1 C 5,0 C 98 % 991,4 hPa 0,0 l/m 0 min 0 min 0,0 UV-I 0 W/m 7,7 km/h (2 Bft)
05.11.2013 19:54 6,1 C 5,0 C 98 % 991,4 hPa 0,0 l/m 0 min 0 min 0,0 UV-I 0 W/m 2,6 km/h (1 Bft)
05.11.2013 19:56 6,1 C 5,0 C 98 % 991,4 hPa 0,0 l/m 0 min 0 min 0,0 UV-I 0 W/m 0,0 km/h (0 Bft)
05.11.2013 19:58 6,1 C 5,0 C 98 % 991,4 hPa 0,0 l/m 0 min 0 min 0,0 UV-I 0 W/m 0,0 km/h (0 Bft)
05.11.2013 20:00 6,1 C 5,0 C 98 % 991,4 hPa 0,0 l/m 0 min 0 min 0,0 UV-I 0 W/m 0,0 km/h (0 Bft)
05.11.2013 20:02 6,2 C 5,0 C 98 % 991,4 hPa 0,0 l/m 0 min 0 min 0,0 UV-I 0 W/m 7,7 km/h (2 Bft)
05.11.2013 20:04 6,2 C 5,0 C 98 % 991,4 hPa 0,0 l/m 0 min 0 min 0,0 UV-I 0 W/m 2,6 km/h (1 Bft)
05.11.2013 20:06 6,2 C 5,0 C 98 % 991,5 hPa 0,0 l/m 0 min 0 min 0,0 UV-I 0 W/m 10,3 km/h (2 Bft)
05.11.2013 20:08 6,2 C 5,6 C 98 % 991,4 hPa 0,0 l/m 0 min 0 min 0,0 UV-I 0 W/m 5,1 km/h (1 Bft)
05.11.2013 20:10 6,2 C 5,6 C 98 % 991,5 hPa 0,0 l/m 0 min 0 min 0,0 UV-I 0 W/m 0,0 km/h (0 Bft)
05.11.2013 20:12 6,3 C 5,6 C 98 % 991,5 hPa 0,0 l/m 0 min 0 min 0,0 UV-I 0 W/m 7,7 km/h (2 Bft)
05.11.2013 20:14 6,3 C 5,6 C 98 % 991,5 hPa 0,0 l/m 0 min 0 min 0,0 UV-I 0 W/m 0,0 km/h (0 Bft)
05.11.2013 20:16 6,3 C 5,6 C 98 % 991,5 hPa 0,0 l/m 0 min 0 min 0,0 UV-I 0 W/m 0,0 km/h (0 Bft)
05.11.2013 20:18 6,3 C 5,6 C 98 % 991,5 hPa 0,0 l/m 0 min 0 min 0,0 UV-I 0 W/m 2,6 km/h (1 Bft)
05.11.2013 20:20 6,4 C 5,6 C 98 % 991,5 hPa 0,0 l/m 0 min 0 min 0,0 UV-I 0 W/m 0,0 km/h (0 Bft)
05.11.2013 20:22 6,4 C 5,6 C 98 % 991,5 hPa 0,0 l/m 0 min 0 min 0,0 UV-I 0 W/m 0,0 km/h (0 Bft)
05.11.2013 20:24 6,4 C 5,6 C 98 % 991,6 hPa 0,0 l/m 0 min 0 min 0,0 UV-I 0 W/m 0,0 km/h (0 Bft)
05.11.2013 20:26 6,4 C 5,6 C 98 % 991,5 hPa 0,0 l/m 0 min 0 min 0,0 UV-I 0 W/m 0,0 km/h (0 Bft)
05.11.2013 20:28 6,4 C 5,6 C 98 % 991,4 hPa 0,0 l/m 0 min 0 min 0,0 UV-I 0 W/m 0,0 km/h (0 Bft)
05.11.2013 20:30 6,4 C 5,6 C 98 % 991,4 hPa 0,0 l/m 0 min 0 min 0,0 UV-I 0 W/m 0,0 km/h (0 Bft)
05.11.2013 20:32 6,4 C 5,6 C 98 % 991,4 hPa 0,0 l/m 0 min 0 min 0,0 UV-I 0 W/m 0,0 km/h (0 Bft)
05.11.2013 20:34 6,4 C 5,6 C 98 % 991,4 hPa 0,0 l/m 0 min 0 min 0,0 UV-I 0 W/m 0,0 km/h (0 Bft)
05.11.2013 20:36 6,5 C 5,6 C 98 % 991,5 hPa 0,0 l/m 0 min 2 min 0,0 UV-I 0 W/m 2,6 km/h (1 Bft)
05.11.2013 20:38 6,5 C 5,6 C 98 % 991,5 hPa 0,0 l/m 0 min 0 min 0,0 UV-I 0 W/m 0,0 km/h (0 Bft)
05.11.2013 20:40 6,6 C 5,6 C 98 % 991,4 hPa 0,0 l/m 0 min 0 min 0,0 UV-I 0 W/m 0,0 km/h (0 Bft)
05.11.2013 20:42 6,6 C 5,6 C 98 % 991,4 hPa 0,0 l/m 0 min 2 min 0,0 UV-I 0 W/m 2,6 km/h (1 Bft)
05.11.2013 20:44 6,7 C 5,6 C 98 % 991,4 hPa 0,0 l/m 0 min 2 min 0,0 UV-I 0 W/m 0,0 km/h (0 Bft)
05.11.2013 20:46 6,8 C 5,6 C 98 % 991,4 hPa 0,0 l/m 0 min 0 min 0,0 UV-I 0 W/m 0,0 km/h (0 Bft)
05.11.2013 20:48 6,8 C 6,1 C 98 % 991,4 hPa 0,0 l/m 0 min 0 min 0,0 UV-I 0 W/m 0,0 km/h (0 Bft)
05.11.2013 20:50 7,0 C 6,1 C 98 % 991,4 hPa 0,0 l/m 0 min 0 min 0,0 UV-I 0 W/m 10,3 km/h (2 Bft)
05.11.2013 20:52 7,1 C 6,1 C 98 % 991,5 hPa 0,0 l/m 0 min 0 min 0,0 UV-I 0 W/m 10,3 km/h (2 Bft)
05.11.2013 20:54 7,2 C 6,1 C 98 % 991,4 hPa 0,0 l/m 0 min 0 min 0,0 UV-I 0 W/m 7,7 km/h (2 Bft)
05.11.2013 20:56 7,3 C 6,1 C 98 % 991,5 hPa 0,0 l/m 0 min 0 min 0,0 UV-I 0 W/m 0,0 km/h (0 Bft)
05.11.2013 20:58 7,3 C 6,1 C 98 % 991,6 hPa 0,0 l/m 0 min 0 min 0,0 UV-I 0 W/m 12,9 km/h (3 Bft)
05.11.2013 21:00 7,4 C 6,1 C 98 % 991,5 hPa 0,0 l/m 0 min 0 min 0,0 UV-I 0 W/m 12,9 km/h (3 Bft)
05.11.2013 21:02 7,4 C 6,1 C 98 % 991,5 hPa 0,0 l/m 0 min 0 min 0,0 UV-I 0 W/m 15,4 km/h (3 Bft)
05.11.2013 21:04 7,5 C 6,7 C 98 % 991,6 hPa 0,0 l/m 0 min 0 min 0,0 UV-I 0 W/m 2,6 km/h (1 Bft)
05.11.2013 21:06 7,6 C 6,7 C 98 % 991,6 hPa 0,0 l/m 0 min 0 min 0,0 UV-I 0 W/m 12,9 km/h (3 Bft)
05.11.2013 21:08 7,6 C 6,7 C 98 % 991,6 hPa 0,0 l/m 0 min 0 min 0,0 UV-I 0 W/m 18,0 km/h (3 Bft)
05.11.2013 21:10 7,6 C 6,7 C 98 % 991,6 hPa 0,0 l/m 0 min 0 min 0,0 UV-I 0 W/m 12,9 km/h (3 Bft)
05.11.2013 21:12 7,7 C 6,7 C 98 % 991,7 hPa 0,0 l/m 0 min 0 min 0,0 UV-I 0 W/m 5,1 km/h (1 Bft)
05.11.2013 21:14 7,7 C 6,7 C 98 % 991,7 hPa 0,0 l/m 0 min 0 min 0,0 UV-I 0 W/m 12,9 km/h (3 Bft)
05.11.2013 21:16 7,7 C 6,7 C 98 % 991,8 hPa 0,0 l/m 0 min 0 min 0,0 UV-I 0 W/m 18,0 km/h (3 Bft)
05.11.2013 21:18 7,7 C 6,7 C 98 % 991,8 hPa 0,0 l/m 0 min 0 min 0,0 UV-I 0 W/m 18,0 km/h (3 Bft)
05.11.2013 21:20 7,8 C 6,7 C 98 % 991,8 hPa 0,0 l/m 0 min 0 min 0,0 UV-I 0 W/m 10,3 km/h (2 Bft)
05.11.2013 21:22 7,8 C 6,7 C 98 % 991,9 hPa 0,0 l/m 0 min 0 min 0,0 UV-I 0 W/m 7,7 km/h (2 Bft)
05.11.2013 21:24 7,8 C 6,7 C 98 % 991,9 hPa 0,0 l/m 0 min 0 min 0,0 UV-I 0 W/m 15,4 km/h (3 Bft)
05.11.2013 21:26 7,9 C 6,7 C 98 % 991,9 hPa 0,0 l/m 0 min 0 min 0,0 UV-I 0 W/m 23,2 km/h (4 Bft)
05.11.2013 21:28 7,9 C 6,7 C 98 % 992,0 hPa 0,0 l/m 0 min 0 min 0,0 UV-I 0 W/m 12,9 km/h (3 Bft)
05.11.2013 21:30 7,9 C 6,7 C 98 % 992,0 hPa 0,0 l/m 0 min 0 min 0,0 UV-I 0 W/m 20,6 km/h (4 Bft)
05.11.2013 21:32 8,0 C 6,7 C 98 % 992,0 hPa 0,0 l/m 0 min 0 min 0,0 UV-I 0 W/m 10,3 km/h (2 Bft)
05.11.2013 21:34 8,0 C 6,7 C 98 % 992,0 hPa 0,0 l/m 0 min 0 min 0,0 UV-I 0 W/m 20,6 km/h (4 Bft)
05.11.2013 21:36 8,1 C 6,7 C 98 % 992,0 hPa 0,0 l/m 0 min 0 min 0,0 UV-I 0 W/m 15,4 km/h (3 Bft)
05.11.2013 21:38 8,1 C 6,7 C 98 % 992,1 hPa 0,0 l/m 0 min 0 min 0,0 UV-I 0 W/m 15,4 km/h (3 Bft)
05.11.2013 21:40 8,1 C 6,7 C 98 % 992,1 hPa 0,0 l/m 0 min 0 min 0,0 UV-I 0 W/m 10,3 km/h (2 Bft)
05.11.2013 21:42 8,2 C 6,7 C 98 % 992,1 hPa 0,0 l/m 0 min 0 min 0,0 UV-I 0 W/m 7,7 km/h (2 Bft)
05.11.2013 21:44 8,2 C 6,7 C 98 % 992,2 hPa 0,0 l/m 0 min 0 min 0,0 UV-I 0 W/m 20,6 km/h (4 Bft)
05.11.2013 21:46 8,2 C 6,7 C 98 % 992,3 hPa 0,0 l/m 0 min 0 min 0,0 UV-I 0 W/m 15,4 km/h (3 Bft)
05.11.2013 21:48 8,2 C 6,7 C 98 % 992,3 hPa 0,0 l/m 0 min 0 min 0,0 UV-I 0 W/m 20,6 km/h (4 Bft)
05.11.2013 21:50 8,3 C 6,7 C 98 % 992,2 hPa 0,0 l/m 0 min 0 min 0,0 UV-I 0 W/m 28,3 km/h (4 Bft)
05.11.2013 21:52 8,3 C 7,2 C 98 % 992,2 hPa 0,0 l/m 0 min 0 min 0,0 UV-I 0 W/m 20,6 km/h (4 Bft)
05.11.2013 21:54 8,3 C 7,2 C 98 % 992,3 hPa 0,0 l/m 0 min 0 min 0,0 UV-I 0 W/m 18,0 km/h (3 Bft)
05.11.2013 21:56 8,3 C 7,2 C 98 % 992,3 hPa 0,0 l/m 0 min 0 min 0,0 UV-I 0 W/m 10,3 km/h (2 Bft)
05.11.2013 21:58 8,3 C 7,2 C 98 % 992,2 hPa 0,0 l/m 0 min 0 min 0,0 UV-I 0 W/m 18,0 km/h (3 Bft)
05.11.2013 22:00 8,3 C 7,2 C 98 % 992,4 hPa 0,0 l/m 0 min 0 min 0,0 UV-I 0 W/m 7,7 km/h (2 Bft)
05.11.2013 22:02 8,4 C 7,2 C 98 % 992,3 hPa 0,0 l/m 0 min 0 min 0,0 UV-I 0 W/m 10,3 km/h (2 Bft)
05.11.2013 22:04 8,4 C 7,2 C 98 % 992,4 hPa 0,0 l/m 0 min 0 min 0,0 UV-I 0 W/m 7,7 km/h (2 Bft)
05.11.2013 22:06 8,4 C 7,2 C 98 % 992,4 hPa 0,0 l/m 0 min 0 min 0,0 UV-I 0 W/m 12,9 km/h (3 Bft)
05.11.2013 22:08 8,4 C 7,2 C 98 % 992,6 hPa 0,0 l/m 0 min 0 min 0,0 UV-I 0 W/m 15,4 km/h (3 Bft)
05.11.2013 22:10 8,4 C 7,2 C 98 % 992,7 hPa 0,0 l/m 0 min 0 min 0,0 UV-I 0 W/m 10,3 km/h (2 Bft)
05.11.2013 22:12 8,4 C 7,2 C 98 % 992,9 hPa 0,0 l/m 0 min 0 min 0,0 UV-I 0 W/m 7,7 km/h (2 Bft)
05.11.2013 22:14 8,4 C 7,2 C 98 % 993,0 hPa 0,0 l/m 0 min 0 min 0,0 UV-I 0 W/m 23,2 km/h (4 Bft)
05.11.2013 22:16 8,4 C 6,7 C 98 % 992,9 hPa 0,0 l/m 0 min 0 min 0,0 UV-I 0 W/m 12,9 km/h (3 Bft)
05.11.2013 22:18 8,4 C 6,7 C 98 % 993,0 hPa 0,0 l/m 0 min 0 min 0,0 UV-I 0 W/m 20,6 km/h (4 Bft)
05.11.2013 22:20 8,4 C 6,7 C 98 % 993,0 hPa 0,0 l/m 0 min 0 min 0,0 UV-I 0 W/m 18,0 km/h (3 Bft)
05.11.2013 22:22 8,4 C 6,7 C 98 % 993,1 hPa 0,0 l/m 0 min 0 min 0,0 UV-I 0 W/m 18,0 km/h (3 Bft)
05.11.2013 22:24 8,5 C 6,7 C 98 % 993,1 hPa 0,0 l/m 0 min 0 min 0,0 UV-I 0 W/m 23,2 km/h (4 Bft)
05.11.2013 22:26 8,5 C 6,7 C 98 % 993,2 hPa 0,0 l/m 0 min 0 min 0,0 UV-I 0 W/m 18,0 km/h (3 Bft)
05.11.2013 22:28 8,5 C 6,7 C 98 % 993,1 hPa 0,0 l/m 0 min 0 min 0,0 UV-I 0 W/m 10,3 km/h (2 Bft)
05.11.2013 22:30 8,5 C 6,7 C 98 % 993,3 hPa 0,0 l/m 0 min 0 min 0,0 UV-I 0 W/m 12,9 km/h (3 Bft)
05.11.2013 22:32 8,5 C 6,7 C 98 % 993,4 hPa 0,0 l/m 0 min 0 min 0,0 UV-I 0 W/m 23,2 km/h (4 Bft)
05.11.2013 22:34 8,5 C 6,7 C 98 % 993,4 hPa 0,0 l/m 0 min 2 min 0,0 UV-I 0 W/m 10,3 km/h (2 Bft)
05.11.2013 22:36 8,5 C 7,2 C 98 % 993,4 hPa 0,0 l/m 0 min 2 min 0,0 UV-I 0 W/m 20,6 km/h (4 Bft)
05.11.2013 22:38 8,5 C 7,2 C 98 % 993,5 hPa 0,0 l/m 0 min 2 min 0,0 UV-I 0 W/m 15,4 km/h (3 Bft)
05.11.2013 22:40 8,6 C 7,2 C 98 % 993,5 hPa 0,0 l/m 0 min 2 min 0,0 UV-I 0 W/m 20,6 km/h (4 Bft)
05.11.2013 22:42 8,6 C 7,2 C 98 % 993,4 hPa 0,0 l/m 0 min 2 min 0,0 UV-I 0 W/m 15,4 km/h (3 Bft)
05.11.2013 22:44 8,6 C 7,2 C 97 % 993,4 hPa 0,0 l/m 0 min 2 min 0,0 UV-I 0 W/m 12,9 km/h (3 Bft)
05.11.2013 22:46 8,6 C 7,2 C 97 % 993,4 hPa 0,0 l/m 0 min 2 min 0,0 UV-I 0 W/m 15,4 km/h (3 Bft)
05.11.2013 22:48 8,6 C 7,2 C 97 % 993,5 hPa 0,0 l/m 0 min 2 min 0,0 UV-I 0 W/m 7,7 km/h (2 Bft)
05.11.2013 22:50 8,6 C 7,2 C 97 % 993,6 hPa 0,0 l/m 0 min 2 min 0,0 UV-I 0 W/m 15,4 km/h (3 Bft)
05.11.2013 22:52 8,6 C 7,2 C 97 % 993,6 hPa 0,0 l/m 0 min 0 min 0,0 UV-I 0 W/m 7,7 km/h (2 Bft)
05.11.2013 22:54 8,5 C 6,7 C 97 % 993,6 hPa 0,0 l/m 0 min 0 min 0,0 UV-I 0 W/m 10,3 km/h (2 Bft)
05.11.2013 22:56 8,5 C 6,7 C 97 % 993,6 hPa 0,0 l/m 0 min 0 min 0,0 UV-I 0 W/m 15,4 km/h (3 Bft)
05.11.2013 22:58 8,4 C 6,7 C 97 % 993,7 hPa 0,0 l/m 0 min 0 min 0,0 UV-I 0 W/m 25,7 km/h (4 Bft)
05.11.2013 23:00 8,4 C 6,7 C 97 % 993,7 hPa 0,0 l/m 0 min 0 min 0,0 UV-I 0 W/m 33,5 km/h (5 Bft)
05.11.2013 23:02 8,4 C 6,7 C 97 % 993,7 hPa 0,0 l/m 0 min 0 min 0,0 UV-I 0 W/m 15,4 km/h (3 Bft)
05.11.2013 23:04 8,4 C 6,7 C 97 % 993,6 hPa 0,0 l/m 0 min 0 min 0,0 UV-I 0 W/m 7,7 km/h (2 Bft)
05.11.2013 23:06 8,4 C 6,7 C 97 % 993,7 hPa 0,0 l/m 0 min 0 min 0,0 UV-I 0 W/m 15,4 km/h (3 Bft)
05.11.2013 23:08 8,4 C 6,7 C 97 % 993,7 hPa 0,0 l/m 0 min 0 min 0,0 UV-I 0 W/m 5,1 km/h (1 Bft)
05.11.2013 23:10 8,4 C 6,7 C 97 % 993,7 hPa 0,0 l/m 0 min 0 min 0,0 UV-I 0 W/m 10,3 km/h (2 Bft)
05.11.2013 23:12 8,4 C 6,7 C 97 % 993,8 hPa 0,0 l/m 0 min 0 min 0,0 UV-I 0 W/m 10,3 km/h (2 Bft)
05.11.2013 23:14 8,4 C 6,7 C 97 % 993,8 hPa 0,0 l/m 0 min 0 min 0,0 UV-I 0 W/m 18,0 km/h (3 Bft)
05.11.2013 23:16 8,4 C 6,7 C 97 % 993,7 hPa 0,0 l/m 0 min 0 min 0,0 UV-I 0 W/m 12,9 km/h (3 Bft)
05.11.2013 23:18 8,4 C 6,7 C 97 % 993,8 hPa 0,0 l/m 0 min 0 min 0,0 UV-I 0 W/m 10,3 km/h (2 Bft)
05.11.2013 23:20 8,4 C 6,7 C 97 % 993,9 hPa 0,0 l/m 0 min 0 min 0,0 UV-I 0 W/m 10,3 km/h (2 Bft)
05.11.2013 23:22 8,5 C 6,7 C 97 % 994,0 hPa 0,0 l/m 0 min 0 min 0,0 UV-I 0 W/m 12,9 km/h (3 Bft)
05.11.2013 23:24 8,5 C 6,7 C 97 % 993,9 hPa 0,0 l/m 0 min 0 min 0,0 UV-I 0 W/m 10,3 km/h (2 Bft)
05.11.2013 23:26 8,5 C 6,7 C 96 % 994,0 hPa 0,0 l/m 0 min 0 min 0,0 UV-I 0 W/m 20,6 km/h (4 Bft)
05.11.2013 23:28 8,5 C 6,7 C 96 % 994,0 hPa 0,0 l/m 0 min 0 min 0,0 UV-I 0 W/m 25,7 km/h (4 Bft)
05.11.2013 23:30 8,5 C 6,7 C 96 % 994,0 hPa 0,0 l/m 0 min 0 min 0,0 UV-I 0 W/m 7,7 km/h (2 Bft)
05.11.2013 23:32 8,5 C 6,7 C 96 % 994,0 hPa 0,0 l/m 0 min 0 min 0,0 UV-I 0 W/m 12,9 km/h (3 Bft)
05.11.2013 23:34 8,5 C 6,7 C 96 % 994,0 hPa 0,0 l/m 0 min 0 min 0,0 UV-I 0 W/m 10,3 km/h (2 Bft)
05.11.2013 23:36 8,5 C 6,7 C 96 % 994,1 hPa 0,0 l/m 0 min 0 min 0,0 UV-I 0 W/m 15,4 km/h (3 Bft)
05.11.2013 23:38 8,5 C 6,7 C 96 % 994,2 hPa 0,0 l/m 0 min 0 min 0,0 UV-I 0 W/m 18,0 km/h (3 Bft)
05.11.2013 23:40 8,5 C 6,7 C 96 % 994,3 hPa 0,0 l/m 0 min 0 min 0,0 UV-I 0 W/m 23,2 km/h (4 Bft)
05.11.2013 23:42 8,5 C 6,7 C 96 % 994,3 hPa 0,0 l/m 0 min 0 min 0,0 UV-I 0 W/m 15,4 km/h (3 Bft)
05.11.2013 23:44 8,4 C 6,7 C 96 % 994,4 hPa 0,0 l/m 0 min 0 min 0,0 UV-I 0 W/m 7,7 km/h (2 Bft)
05.11.2013 23:46 8,4 C 6,7 C 96 % 994,4 hPa 0,0 l/m 0 min 0 min 0,0 UV-I 0 W/m 10,3 km/h (2 Bft)
05.11.2013 23:48 8,4 C 6,7 C 96 % 994,4 hPa 0,0 l/m 0 min 0 min 0,0 UV-I 0 W/m 10,3 km/h (2 Bft)
05.11.2013 23:50 8,3 C 6,1 C 96 % 994,5 hPa 0,0 l/m 0 min 0 min 0,0 UV-I 0 W/m 12,9 km/h (3 Bft)
05.11.2013 23:52 8,3 C 6,1 C 95 % 994,6 hPa 0,0 l/m 0 min 0 min 0,0 UV-I 0 W/m 18,0 km/h (3 Bft)
05.11.2013 23:54 8,2 C 6,1 C 95 % 994,5 hPa 0,0 l/m 0 min 0 min 0,0 UV-I 0 W/m 12,9 km/h (3 Bft)
05.11.2013 23:56 8,2 C 6,1 C 95 % 994,6 hPa 0,0 l/m 0 min 0 min 0,0 UV-I 0 W/m 7,7 km/h (2 Bft)
05.11.2013 23:58 8,1 C 6,1 C 95 % 994,5 hPa 0,0 l/m 0 min 0 min 0,0 UV-I 0 W/m 10,3 km/h (2 Bft)
_ Min-Zeit 07:22 07:24 12:54 19:46 - - - - - 00:12
Minimum _ 4,2 C 2,8 C 76 % 991,2 hPa - - - - - 0,0 km/h (0 Bft)
_ Max-Zeit 11:34 11:28 19:38 06:30 00:30 07:58 00:00 00:00 09:34 12:54
Maximum _ 8,9 C 8,3 C 98 % 999,0 hPa 0,2 l/m 2 min 2 min 0,0 UV-I 236 W/m 33,5 km/h
S-SO (5 Bft)
Durchschnitt _ 6,5 C 5,3 C 93 % 995,6 hPa #6,2 l/m #38 min. #7:26 h 0,0 UV-I 79 W/m 10,4 km/h (2 Bft)
© 2013 W. Hausmann